Wetterdaten: aktuell Mittwoch, 19.06.2019 11:58
Datum Zeit Temp. A. Feuchte A. Luftdruck Regen Sonnenschein Regendauer ET UV Solar Taupunkt Windchill Windben Empfang
19.06.2019 11:58 23,7 C 69 % 1007,1 hPa 0,0 l/m 0 min 2 min 0,000 mm 0,5 UV-I 44 W/m 17,7 C 21,3 C 35,4 km/h (5 Bft) 98 %
19.06.2019 11:56 23,8 C 68 % 1006,9 hPa 0,0 l/m 0 min 2 min 0,000 mm 0,8 UV-I 57 W/m 17,5 C 22,0 C 29,0 km/h (5 Bft) 98 %
19.06.2019 11:54 23,8 C 68 % 1006,8 hPa 0,0 l/m 0 min 2 min 0,000 mm 1,0 UV-I 75 W/m 17,5 C 22,5 C 19,3 km/h (3 Bft) 100 %
19.06.2019 11:52 23,9 C 68 % 1006,8 hPa 0,0 l/m 0 min 0 min 0,000 mm 1,3 UV-I 100 W/m 17,6 C 21,6 C 27,4 km/h (4 Bft) 97 %
19.06.2019 11:50 23,9 C 68 % 1006,8 hPa 0,0 l/m 0 min 0 min 0,000 mm 1,5 UV-I 127 W/m 17,6 C 21,7 C 22,5 km/h (4 Bft) 100 %
19.06.2019 11:48 23,9 C 68 % 1006,7 hPa 0,0 l/m 0 min 0 min 0,000 mm 1,9 UV-I 161 W/m 17,6 C 21,8 C 35,4 km/h (5 Bft) 100 %
19.06.2019 11:46 24,0 C 69 % 1006,7 hPa 0,0 l/m 0 min 0 min 0,000 mm 2,3 UV-I 194 W/m 18,0 C 21,8 C 32,2 km/h (5 Bft) 100 %
19.06.2019 11:44 24,1 C 69 % 1006,8 hPa 0,0 l/m 0 min 0 min 0,000 mm 2,5 UV-I 214 W/m 18,0 C 21,7 C 30,6 km/h (5 Bft) 100 %
19.06.2019 11:42 24,1 C 70 % 1006,8 hPa 0,0 l/m 0 min 0 min 0,000 mm 2,5 UV-I 222 W/m 18,3 C 22,4 C 30,6 km/h (5 Bft) 100 %
19.06.2019 11:40 24,2 C 70 % 1006,8 hPa 0,0 l/m 0 min 0 min 0,000 mm 2,5 UV-I 227 W/m 18,4 C 23,6 C 14,5 km/h (3 Bft) 98 %
19.06.2019 11:38 24,3 C 69 % 1006,8 hPa 0,0 l/m 0 min 0 min 0,000 mm 2,4 UV-I 216 W/m 18,2 C 22,9 C 20,9 km/h (4 Bft) 100 %
19.06.2019 11:36 24,6 C 68 % 1006,9 hPa 0,0 l/m 0 min 0 min 0,000 mm 2,2 UV-I 192 W/m 18,3 C 22,0 C 32,2 km/h (5 Bft) 100 %
19.06.2019 11:34 24,8 C 67 % 1006,9 hPa 0,0 l/m 0 min 0 min 0,000 mm 2,0 UV-I 180 W/m 18,2 C 22,3 C 33,8 km/h (5 Bft) 100 %
19.06.2019 11:32 25,1 C 68 % 1006,7 hPa 0,0 l/m 0 min 0 min 0,000 mm 2,1 UV-I 186 W/m 18,8 C 23,8 C 29,0 km/h (5 Bft) 100 %
19.06.2019 11:30 25,2 C 66 % 1006,5 hPa 0,0 l/m 0 min 0 min 0,000 mm 2,3 UV-I 209 W/m 18,4 C 23,8 C 22,5 km/h (4 Bft) 100 %
19.06.2019 11:28 25,4 C 67 % 1006,4 hPa 0,0 l/m 0 min 0 min 0,000 mm 2,7 UV-I 244 W/m 18,8 C 24,3 C 19,3 km/h (3 Bft) 100 %
19.06.2019 11:26 25,6 C 66 % 1006,3 hPa 0,0 l/m 0 min 0 min 0,000 mm 3,1 UV-I 284 W/m 18,8 C 25,1 C 25,7 km/h (4 Bft) 98 %
19.06.2019 11:24 25,7 C 66 % 1006,3 hPa 0,0 l/m 0 min 0 min 0,000 mm 3,6 UV-I 369 W/m 18,9 C 25,2 C 17,7 km/h (3 Bft) 98 %
19.06.2019 11:22 25,8 C 65 % 1006,3 hPa 0,0 l/m 0 min 0 min 0,000 mm 4,0 UV-I 399 W/m 18,7 C 24,0 C 29,0 km/h (5 Bft) 96 %
19.06.2019 11:20 26,0 C 64 % 1006,4 hPa 0,0 l/m 0 min 0 min 0,000 mm 3,6 UV-I 321 W/m 18,6 C 24,3 C 29,0 km/h (5 Bft) 97 %
19.06.2019 11:18 26,2 C 63 % 1006,3 hPa 0,0 l/m 0 min 0 min 0,000 mm 3,6 UV-I 310 W/m 18,6 C 24,3 C 29,0 km/h (5 Bft) 100 %
19.06.2019 11:16 26,4 C 64 % 1006,2 hPa 0,0 l/m 2 min 0 min 0,000 mm 4,4 UV-I 496 W/m 19,0 C 24,8 C 25,7 km/h (4 Bft) 100 %
19.06.2019 11:14 26,6 C 64 % 1006,1 hPa 0,0 l/m 0 min 0 min 0,000 mm 5,4 UV-I 404 W/m 19,2 C 25,1 C 25,7 km/h (4 Bft) 94 %
19.06.2019 11:12 26,6 C 62 % 1006,0 hPa 0,0 l/m 0 min 0 min 0,000 mm 4,3 UV-I 392 W/m 18,7 C 25,1 C 30,6 km/h (5 Bft) 98 %
19.06.2019 11:10 26,7 C 64 % 1005,9 hPa 0,0 l/m 2 min 0 min 0,000 mm 5,1 UV-I 684 W/m 19,3 C 26,2 C 14,5 km/h (3 Bft) 98 %
19.06.2019 11:08 26,6 C 64 % 1005,9 hPa 0,0 l/m 2 min 0 min 0,000 mm 6,1 UV-I 903 W/m 19,2 C 25,7 C 20,9 km/h (4 Bft) 94 %
19.06.2019 11:06 26,4 C 64 % 1005,9 hPa 0,0 l/m 0 min 0 min 0,000 mm 4,9 UV-I 424 W/m 19,0 C 26,3 C 14,5 km/h (3 Bft) 96 %
19.06.2019 11:04 26,4 C 62 % 1005,9 hPa 0,0 l/m 0 min 0 min 0,356 mm 4,2 UV-I 384 W/m 18,5 C 25,8 C 17,7 km/h (3 Bft) 98 %
19.06.2019 11:00 26,8 C 61 % 1005,8 hPa 0,0 l/m 0 min 0 min 0,000 mm 3,3 UV-I 250 W/m 18,6 C 25,7 C 27,4 km/h (4 Bft) 94 %
19.06.2019 10:58 27,1 C 60 % 1005,8 hPa 0,0 l/m 0 min 0 min 0,000 mm 3,2 UV-I 231 W/m 18,6 C 26,3 C 20,9 km/h (4 Bft) 93 %
19.06.2019 10:56 27,3 C 60 % 1005,8 hPa 0,0 l/m 0 min 0 min 0,000 mm 3,4 UV-I 393 W/m 18,8 C 26,0 C 29,0 km/h (5 Bft) 91 %
19.06.2019 10:54 27,4 C 61 % 1005,7 hPa 0,0 l/m 2 min 0 min 0,000 mm 4,5 UV-I 734 W/m 19,2 C 26,5 C 19,3 km/h (3 Bft) 94 %
19.06.2019 10:52 27,4 C 61 % 1005,7 hPa 0,0 l/m 2 min 0 min 0,000 mm 4,7 UV-I 805 W/m 19,2 C 26,6 C 24,1 km/h (4 Bft) 94 %
19.06.2019 10:50 27,3 C 60 % 1005,6 hPa 0,0 l/m 2 min 0 min 0,000 mm 4,2 UV-I 784 W/m 18,8 C 26,5 C 17,7 km/h (3 Bft) 90 %
19.06.2019 10:48 27,3 C 60 % 1005,6 hPa 0,0 l/m 2 min 0 min 0,000 mm 5,2 UV-I 790 W/m 18,8 C 26,5 C 19,3 km/h (3 Bft) 93 %
19.06.2019 10:46 27,1 C 63 % 1005,5 hPa 0,0 l/m 2 min 0 min 0,000 mm 5,3 UV-I 826 W/m 19,4 C 26,6 C 14,5 km/h (3 Bft) 94 %
19.06.2019 10:44 26,8 C 61 % 1005,6 hPa 0,0 l/m 2 min 0 min 0,000 mm 5,0 UV-I 785 W/m 18,6 C 26,5 C 14,5 km/h (3 Bft) 94 %
19.06.2019 10:42 26,8 C 63 % 1005,6 hPa 0,0 l/m 0 min 0 min 0,000 mm 5,0 UV-I 276 W/m 19,1 C 26,8 C 9,7 km/h (2 Bft) 91 %
19.06.2019 10:40 26,8 C 62 % 1005,6 hPa 0,0 l/m 0 min 0 min 0,000 mm 3,7 UV-I 270 W/m 18,9 C 26,7 C 12,9 km/h (3 Bft) 96 %
19.06.2019 10:38 26,8 C 62 % 1005,5 hPa 0,0 l/m 0 min 0 min 0,000 mm 3,6 UV-I 331 W/m 18,9 C 26,2 C 16,1 km/h (3 Bft) 92 %
19.06.2019 10:36 26,8 C 63 % 1005,5 hPa 0,0 l/m 0 min 0 min 0,000 mm 3,8 UV-I 426 W/m 19,1 C 26,8 C 12,9 km/h (3 Bft) 94 %
19.06.2019 10:34 26,7 C 63 % 1005,5 hPa 0,0 l/m 0 min 0 min 0,000 mm 3,5 UV-I 368 W/m 19,1 C 26,4 C 14,5 km/h (3 Bft) 96 %
19.06.2019 10:32 26,7 C 62 % 1005,4 hPa 0,0 l/m 0 min 0 min 0,000 mm 3,6 UV-I 368 W/m 18,8 C 26,7 C 9,7 km/h (2 Bft) 95 %
19.06.2019 10:30 26,6 C 63 % 1005,5 hPa 0,0 l/m 0 min 0 min 0,000 mm 3,7 UV-I 373 W/m 19,0 C 26,6 C 6,4 km/h (2 Bft) 94 %
19.06.2019 10:28 26,4 C 61 % 1005,5 hPa 0,0 l/m 0 min 0 min 0,000 mm 3,4 UV-I 398 W/m 18,3 C 26,4 C 11,3 km/h (2 Bft) 96 %
19.06.2019 10:26 26,3 C 61 % 1005,5 hPa 0,0 l/m 0 min 0 min 0,000 mm 2,9 UV-I 282 W/m 18,2 C 26,3 C 8,0 km/h (2 Bft) 98 %
19.06.2019 10:24 26,3 C 60 % 1005,5 hPa 0,0 l/m 0 min 0 min 0,000 mm 2,8 UV-I 260 W/m 17,9 C 26,3 C 14,5 km/h (3 Bft) 98 %
19.06.2019 10:22 26,4 C 59 % 1005,4 hPa 0,0 l/m 0 min 0 min 0,000 mm 2,6 UV-I 242 W/m 17,7 C 26,2 C 16,1 km/h (3 Bft) 95 %
19.06.2019 10:20 26,5 C 59 % 1005,4 hPa 0,0 l/m 0 min 0 min 0,000 mm 2,5 UV-I 242 W/m 17,8 C 25,6 C 19,3 km/h (3 Bft) 98 %
19.06.2019 10:18 26,6 C 58 % 1005,2 hPa 0,0 l/m 0 min 0 min 0,000 mm 2,5 UV-I 254 W/m 17,6 C 25,4 C 22,5 km/h (4 Bft) 98 %
19.06.2019 10:16 26,7 C 59 % 1005,2 hPa 0,0 l/m 0 min 0 min 0,000 mm 2,5 UV-I 269 W/m 18,0 C 25,7 C 19,3 km/h (3 Bft) 93 %
19.06.2019 10:14 26,8 C 58 % 1005,2 hPa 0,0 l/m 0 min 0 min 0,000 mm 2,6 UV-I 295 W/m 17,8 C 25,7 C 20,9 km/h (4 Bft) 98 %
19.06.2019 10:12 26,9 C 59 % 1005,1 hPa 0,0 l/m 0 min 0 min 0,000 mm 2,8 UV-I 335 W/m 18,2 C 25,6 C 24,1 km/h (4 Bft) 98 %
19.06.2019 10:10 27,1 C 60 % 1004,9 hPa 0,0 l/m 2 min 0 min 0,000 mm 2,9 UV-I 473 W/m 18,6 C 26,5 C 17,7 km/h (3 Bft) 98 %
19.06.2019 10:08 27,1 C 61 % 1004,9 hPa 0,0 l/m 2 min 0 min 0,000 mm 3,1 UV-I 644 W/m 18,9 C 26,0 C 19,3 km/h (3 Bft) 95 %
19.06.2019 10:06 27,1 C 61 % 1004,9 hPa 0,0 l/m 2 min 0 min 0,000 mm 3,8 UV-I 622 W/m 18,9 C 26,0 C 22,5 km/h (4 Bft) 98 %
19.06.2019 10:04 27,1 C 61 % 1004,9 hPa 0,0 l/m 2 min 0 min 0,431 mm 3,8 UV-I 691 W/m 18,9 C 25,7 C 27,4 km/h (4 Bft) 94 %
19.06.2019 10:00 27,1 C 62 % 1004,9 hPa 0,0 l/m 2 min 0 min 0,000 mm 4,0 UV-I 705 W/m 19,2 C 26,1 C 19,3 km/h (3 Bft) 97 %
19.06.2019 09:58 27,0 C 63 % 1005,0 hPa 0,0 l/m 2 min 0 min 0,000 mm 4,0 UV-I 673 W/m 19,3 C 25,6 C 27,4 km/h (4 Bft) 98 %
19.06.2019 09:56 26,9 C 63 % 1005,0 hPa 0,0 l/m 2 min 0 min 0,000 mm 3,8 UV-I 659 W/m 19,2 C 25,3 C 32,2 km/h (5 Bft) 94 %
19.06.2019 09:54 26,9 C 62 % 1005,0 hPa 0,0 l/m 2 min 0 min 0,000 mm 3,8 UV-I 661 W/m 19,0 C 25,5 C 30,6 km/h (5 Bft) 94 %
19.06.2019 09:52 26,9 C 64 % 1005,0 hPa 0,0 l/m 2 min 0 min 0,000 mm 3,6 UV-I 651 W/m 19,5 C 25,1 C 29,0 km/h (5 Bft) 97 %
19.06.2019 09:50 26,8 C 64 % 1005,0 hPa 0,0 l/m 2 min 0 min 0,000 mm 3,6 UV-I 637 W/m 19,4 C 25,4 C 20,9 km/h (4 Bft) 98 %
19.06.2019 09:48 26,8 C 65 % 1005,0 hPa 0,0 l/m 2 min 0 min 0,000 mm 3,6 UV-I 623 W/m 19,7 C 25,8 C 19,3 km/h (3 Bft) 96 %
19.06.2019 09:46 26,7 C 65 % 1005,2 hPa 0,0 l/m 2 min 0 min 0,000 mm 3,5 UV-I 612 W/m 19,6 C 25,2 C 27,4 km/h (4 Bft) 96 %
19.06.2019 09:44 26,7 C 64 % 1005,1 hPa 0,0 l/m 2 min 0 min 0,000 mm 3,5 UV-I 605 W/m 19,3 C 25,4 C 22,5 km/h (4 Bft) 98 %
19.06.2019 09:42 26,7 C 64 % 1005,1 hPa 0,0 l/m 2 min 0 min 0,000 mm 3,4 UV-I 601 W/m 19,3 C 25,1 C 27,4 km/h (4 Bft) 96 %
19.06.2019 09:40 26,6 C 66 % 1005,1 hPa 0,0 l/m 2 min 0 min 0,000 mm 3,4 UV-I 597 W/m 19,7 C 25,5 C 20,9 km/h (4 Bft) 95 %
19.06.2019 09:38 26,5 C 68 % 1005,2 hPa 0,0 l/m 2 min 0 min 0,000 mm 3,3 UV-I 587 W/m 20,1 C 26,2 C 12,9 km/h (3 Bft) 96 %
19.06.2019 09:36 26,3 C 67 % 1005,2 hPa 0,0 l/m 2 min 0 min 0,000 mm 3,3 UV-I 586 W/m 19,7 C 25,8 C 16,1 km/h (3 Bft) 96 %
19.06.2019 09:34 26,2 C 66 % 1005,2 hPa 0,0 l/m 2 min 0 min 0,000 mm 3,2 UV-I 582 W/m 19,3 C 25,7 C 12,9 km/h (3 Bft) 96 %
19.06.2019 09:32 26,1 C 68 % 1005,2 hPa 0,0 l/m 2 min 0 min 0,000 mm 3,1 UV-I 582 W/m 19,7 C 25,0 C 22,5 km/h (4 Bft) 100 %
19.06.2019 09:30 25,9 C 68 % 1005,4 hPa 0,0 l/m 2 min 0 min 0,000 mm 3,1 UV-I 582 W/m 19,5 C 24,8 C 20,9 km/h (4 Bft) 96 %
19.06.2019 09:28 25,9 C 67 % 1005,4 hPa 0,0 l/m 2 min 0 min 0,000 mm 3,0 UV-I 577 W/m 19,3 C 24,5 C 22,5 km/h (4 Bft) 96 %
19.06.2019 09:26 25,9 C 67 % 1005,6 hPa 0,0 l/m 2 min 0 min 0,000 mm 3,0 UV-I 567 W/m 19,3 C 24,3 C 24,1 km/h (4 Bft) 94 %
19.06.2019 09:24 25,8 C 69 % 1005,4 hPa 0,0 l/m 2 min 0 min 0,000 mm 2,9 UV-I 555 W/m 19,7 C 24,7 C 16,1 km/h (3 Bft) 97 %
19.06.2019 09:22 25,7 C 67 % 1005,2 hPa 0,0 l/m 2 min 0 min 0,000 mm 2,8 UV-I 541 W/m 19,1 C 24,5 C 17,7 km/h (3 Bft) 98 %
19.06.2019 09:20 25,7 C 67 % 1005,1 hPa 0,0 l/m 2 min 0 min 0,000 mm 2,8 UV-I 533 W/m 19,1 C 24,4 C 22,5 km/h (4 Bft) 100 %
19.06.2019 09:18 25,6 C 68 % 1005,2 hPa 0,0 l/m 2 min 0 min 0,000 mm 2,8 UV-I 524 W/m 19,2 C 24,8 C 16,1 km/h (3 Bft) 96 %
19.06.2019 09:16 25,4 C 68 % 1005,2 hPa 0,0 l/m 2 min 0 min 0,000 mm 2,7 UV-I 519 W/m 19,1 C 24,7 C 12,9 km/h (3 Bft) 100 %
19.06.2019 09:14 25,4 C 69 % 1005,1 hPa 0,0 l/m 2 min 0 min 0,000 mm 2,7 UV-I 509 W/m 19,3 C 24,4 C 14,5 km/h (3 Bft) 100 %
19.06.2019 09:12 25,3 C 68 % 1005,2 hPa 0,0 l/m 2 min 0 min 0,000 mm 2,6 UV-I 497 W/m 19,0 C 23,9 C 22,5 km/h (4 Bft) 100 %
19.06.2019 09:10 25,2 C 69 % 1005,2 hPa 0,0 l/m 2 min 0 min 0,000 mm 2,6 UV-I 491 W/m 19,1 C 24,1 C 17,7 km/h (3 Bft) 98 %
19.06.2019 09:08 25,2 C 70 % 1005,2 hPa 0,0 l/m 2 min 0 min 0,000 mm 2,5 UV-I 487 W/m 19,3 C 24,0 C 17,7 km/h (3 Bft) 100 %
19.06.2019 09:06 25,1 C 68 % 1005,2 hPa 0,0 l/m 2 min 0 min 0,000 mm 2,5 UV-I 479 W/m 18,8 C 23,6 C 22,5 km/h (4 Bft) 98 %
19.06.2019 09:04 25,1 C 69 % 1005,2 hPa 0,0 l/m 2 min 0 min 0,254 mm 2,4 UV-I 472 W/m 19,0 C 23,5 C 22,5 km/h (4 Bft) 96 %
19.06.2019 09:00 24,9 C 69 % 1005,2 hPa 0,0 l/m 2 min 0 min 0,000 mm 2,4 UV-I 463 W/m 18,8 C 23,8 C 22,5 km/h (4 Bft) 94 %
19.06.2019 08:58 24,9 C 70 % 1005,2 hPa 0,0 l/m 2 min 0 min 0,000 mm 2,3 UV-I 460 W/m 19,0 C 24,1 C 20,9 km/h (4 Bft) 94 %
19.06.2019 08:56 24,8 C 70 % 1005,2 hPa 0,0 l/m 2 min 0 min 0,000 mm 2,3 UV-I 456 W/m 18,9 C 24,4 C 16,1 km/h (3 Bft) 96 %
19.06.2019 08:54 24,7 C 70 % 1005,3 hPa 0,0 l/m 2 min 0 min 0,000 mm 2,2 UV-I 453 W/m 18,8 C 24,0 C 16,1 km/h (3 Bft) 98 %
19.06.2019 08:52 24,5 C 70 % 1005,3 hPa 0,0 l/m 2 min 0 min 0,000 mm 2,2 UV-I 448 W/m 18,7 C 23,6 C 19,3 km/h (3 Bft) 94 %
19.06.2019 08:50 24,4 C 71 % 1005,4 hPa 0,0 l/m 2 min 0 min 0,000 mm 2,2 UV-I 445 W/m 18,8 C 23,3 C 17,7 km/h (3 Bft) 98 %
19.06.2019 08:48 24,3 C 72 % 1005,4 hPa 0,0 l/m 2 min 0 min 0,000 mm 2,2 UV-I 440 W/m 18,9 C 23,6 C 12,9 km/h (3 Bft) 98 %
19.06.2019 08:46 24,1 C 73 % 1005,4 hPa 0,0 l/m 2 min 0 min 0,000 mm 2,1 UV-I 434 W/m 18,9 C 23,6 C 12,9 km/h (3 Bft) 98 %
19.06.2019 08:44 23,9 C 72 % 1005,4 hPa 0,0 l/m 2 min 0 min 0,000 mm 2,1 UV-I 426 W/m 18,5 C 23,1 C 12,9 km/h (3 Bft) 98 %
19.06.2019 08:42 23,7 C 75 % 1005,5 hPa 0,0 l/m 2 min 0 min 0,000 mm 2,0 UV-I 420 W/m 19,0 C 23,2 C 16,1 km/h (3 Bft) 94 %
19.06.2019 08:40 23,5 C 74 % 1005,4 hPa 0,0 l/m 2 min 0 min 0,000 mm 2,0 UV-I 416 W/m 18,6 C 23,5 C 9,7 km/h (2 Bft) 98 %
19.06.2019 08:38 23,3 C 76 % 1005,4 hPa 0,0 l/m 2 min 0 min 0,000 mm 1,9 UV-I 413 W/m 18,8 C 23,2 C 16,1 km/h (3 Bft) 98 %
19.06.2019 08:36 23,1 C 77 % 1005,4 hPa 0,0 l/m 2 min 0 min 0,000 mm 1,9 UV-I 410 W/m 18,8 C 23,1 C 8,0 km/h (2 Bft) 98 %
19.06.2019 08:34 22,9 C 78 % 1005,4 hPa 0,0 l/m 2 min 0 min 0,000 mm 1,8 UV-I 327 W/m 18,9 C 22,7 C 11,3 km/h (2 Bft) 100 %
19.06.2019 08:32 22,8 C 79 % 1005,4 hPa 0,0 l/m 0 min 0 min 0,000 mm 1,8 UV-I 199 W/m 19,0 C 22,8 C 8,0 km/h (2 Bft) 100 %
19.06.2019 08:30 22,8 C 80 % 1005,5 hPa 0,0 l/m 0 min 0 min 0,000 mm 1,6 UV-I 192 W/m 19,2 C 22,8 C 6,4 km/h (2 Bft) 100 %
19.06.2019 08:28 22,7 C 80 % 1005,5 hPa 0,0 l/m 2 min 0 min 0,000 mm 1,6 UV-I 323 W/m 19,1 C 22,7 C 4,8 km/h (1 Bft) 98 %
19.06.2019 08:26 22,5 C 79 % 1005,5 hPa 0,0 l/m 2 min 0 min 0,000 mm 1,7 UV-I 350 W/m 18,7 C 22,5 C 4,8 km/h (1 Bft) 100 %
19.06.2019 08:24 22,4 C 79 % 1005,5 hPa 0,0 l/m 2 min 0 min 0,000 mm 1,7 UV-I 391 W/m 18,6 C 22,4 C 3,2 km/h (1 Bft) 100 %
19.06.2019 08:22 22,2 C 79 % 1005,5 hPa 0,0 l/m 2 min 0 min 0,000 mm 1,7 UV-I 385 W/m 18,4 C 22,2 C 4,8 km/h (1 Bft) 100 %
19.06.2019 08:20 22,1 C 80 % 1005,5 hPa 0,0 l/m 2 min 0 min 0,000 mm 1,6 UV-I 379 W/m 18,5 C 22,1 C 3,2 km/h (1 Bft) 98 %
19.06.2019 08:18 22,0 C 80 % 1005,5 hPa 0,0 l/m 2 min 0 min 0,000 mm 1,6 UV-I 370 W/m 18,4 C 22,0 C 4,8 km/h (1 Bft) 98 %
19.06.2019 08:16 21,9 C 82 % 1005,4 hPa 0,0 l/m 2 min 0 min 0,000 mm 1,6 UV-I 358 W/m 18,7 C 21,9 C 6,4 km/h (2 Bft) 91 %
19.06.2019 08:14 21,8 C 82 % 1005,5 hPa 0,0 l/m 2 min 0 min 0,000 mm 1,5 UV-I 351 W/m 18,6 C 21,8 C 3,2 km/h (1 Bft) 96 %
19.06.2019 08:12 21,7 C 81 % 1005,6 hPa 0,0 l/m 2 min 0 min 0,000 mm 1,5 UV-I 345 W/m 18,3 C 21,7 C 1,6 km/h (1 Bft) 96 %
19.06.2019 08:10 21,6 C 81 % 1005,5 hPa 0,0 l/m 2 min 0 min 0,000 mm 1,5 UV-I 339 W/m 18,2 C 21,6 C 3,2 km/h (1 Bft) 98 %
19.06.2019 08:08 21,5 C 83 % 1005,5 hPa 0,0 l/m 2 min 0 min 0,000 mm 1,5 UV-I 336 W/m 18,5 C 21,5 C 3,2 km/h (1 Bft) 96 %
19.06.2019 08:06 21,4 C 84 % 1005,4 hPa 0,0 l/m 2 min 0 min 0,000 mm 1,4 UV-I 332 W/m 18,6 C 21,4 C 4,8 km/h (1 Bft) 96 %
19.06.2019 08:04 21,3 C 84 % 1005,5 hPa 0,0 l/m 2 min 0 min 0,153 mm 1,4 UV-I 327 W/m 18,5 C 21,3 C 6,4 km/h (2 Bft) 97 %
19.06.2019 08:00 21,1 C 83 % 1005,5 hPa 0,0 l/m 2 min 0 min 0,000 mm 1,3 UV-I 318 W/m 18,1 C 21,1 C 6,4 km/h (2 Bft) 94 %
19.06.2019 07:58 21,0 C 83 % 1005,6 hPa 0,0 l/m 2 min 0 min 0,000 mm 1,3 UV-I 313 W/m 18,0 C 21,0 C 8,0 km/h (2 Bft) 98 %
19.06.2019 07:56 20,9 C 83 % 1005,6 hPa 0,0 l/m 2 min 0 min 0,000 mm 1,3 UV-I 307 W/m 17,9 C 20,9 C 8,0 km/h (2 Bft) 97 %
19.06.2019 07:54 20,9 C 83 % 1005,7 hPa 0,0 l/m 2 min 0 min 0,000 mm 1,3 UV-I 302 W/m 17,9 C 20,9 C 6,4 km/h (2 Bft) 98 %
19.06.2019 07:52 20,8 C 84 % 1005,7 hPa 0,0 l/m 2 min 0 min 0,000 mm 1,3 UV-I 296 W/m 18,0 C 20,8 C 6,4 km/h (2 Bft) 100 %
19.06.2019 07:50 20,7 C 84 % 1005,7 hPa 0,0 l/m 2 min 0 min 0,000 mm 1,2 UV-I 292 W/m 17,9 C 20,7 C 8,0 km/h (2 Bft) 100 %
19.06.2019 07:48 20,7 C 84 % 1005,7 hPa 0,0 l/m 2 min 0 min 0,000 mm 1,2 UV-I 287 W/m 17,9 C 20,2 C 12,9 km/h (3 Bft) 100 %
19.06.2019 07:46 20,6 C 84 % 1005,8 hPa 0,0 l/m 2 min 0 min 0,000 mm 1,2 UV-I 281 W/m 17,8 C 20,5 C 12,9 km/h (3 Bft) 100 %
19.06.2019 07:44 20,5 C 84 % 1005,8 hPa 0,0 l/m 2 min 0 min 0,000 mm 1,2 UV-I 276 W/m 17,7 C 20,5 C 12,9 km/h (3 Bft) 95 %
19.06.2019 07:42 20,4 C 85 % 1005,8 hPa 0,0 l/m 2 min 0 min 0,000 mm 1,2 UV-I 274 W/m 17,8 C 20,4 C 8,0 km/h (2 Bft) 100 %
19.06.2019 07:40 20,3 C 85 % 1005,9 hPa 0,0 l/m 2 min 0 min 0,000 mm 1,1 UV-I 268 W/m 17,7 C 20,1 C 11,3 km/h (2 Bft) 100 %
19.06.2019 07:38 20,2 C 84 % 1005,9 hPa 0,0 l/m 2 min 0 min 0,000 mm 1,1 UV-I 264 W/m 17,4 C 20,2 C 6,4 km/h (2 Bft) 100 %
19.06.2019 07:36 20,1 C 85 % 1005,9 hPa 0,0 l/m 2 min 0 min 0,000 mm 1,1 UV-I 258 W/m 17,5 C 20,1 C 11,3 km/h (2 Bft) 98 %
19.06.2019 07:34 20,0 C 85 % 1005,9 hPa 0,0 l/m 2 min 0 min 0,000 mm 1,1 UV-I 253 W/m 17,4 C 20,0 C 9,7 km/h (2 Bft) 98 %
19.06.2019 07:32 19,9 C 86 % 1005,9 hPa 0,0 l/m 2 min 0 min 0,000 mm 1,0 UV-I 247 W/m 17,5 C 19,9 C 12,9 km/h (3 Bft) 97 %
19.06.2019 07:30 19,8 C 86 % 1005,9 hPa 0,0 l/m 2 min 0 min 0,000 mm 1,0 UV-I 242 W/m 17,4 C 19,0 C 12,9 km/h (3 Bft) 100 %
19.06.2019 07:28 19,7 C 87 % 1006,0 hPa 0,0 l/m 2 min 0 min 0,000 mm 1,0 UV-I 236 W/m 17,5 C 18,0 C 14,5 km/h (3 Bft) 100 %
19.06.2019 07:26 19,6 C 88 % 1006,1 hPa 0,0 l/m 2 min 0 min 0,000 mm 1,0 UV-I 232 W/m 17,6 C 19,1 C 12,9 km/h (3 Bft) 100 %
19.06.2019 07:24 19,4 C 88 % 1006,1 hPa 0,0 l/m 2 min 0 min 0,000 mm 1,0 UV-I 227 W/m 17,4 C 19,4 C 12,9 km/h (3 Bft) 100 %
19.06.2019 07:22 19,2 C 89 % 1006,2 hPa 0,0 l/m 2 min 0 min 0,000 mm 0,9 UV-I 220 W/m 17,3 C 19,2 C 8,0 km/h (2 Bft) 98 %
19.06.2019 07:20 18,9 C 90 % 1006,2 hPa 0,0 l/m 2 min 0 min 0,000 mm 0,9 UV-I 215 W/m 17,2 C 18,9 C 8,0 km/h (2 Bft) 98 %
19.06.2019 07:18 18,7 C 91 % 1006,3 hPa 0,0 l/m 2 min 0 min 0,000 mm 0,9 UV-I 207 W/m 17,2 C 18,7 C 9,7 km/h (2 Bft) 100 %
19.06.2019 07:16 18,4 C 91 % 1006,3 hPa 0,0 l/m 2 min 0 min 0,000 mm 0,9 UV-I 201 W/m 16,9 C 18,4 C 6,4 km/h (2 Bft) 94 %
19.06.2019 07:14 18,2 C 92 % 1006,3 hPa 0,0 l/m 2 min 0 min 0,000 mm 0,9 UV-I 195 W/m 16,9 C 18,2 C 9,7 km/h (2 Bft) 98 %
19.06.2019 07:12 18,1 C 91 % 1006,4 hPa 0,0 l/m 2 min 0 min 0,000 mm 0,9 UV-I 191 W/m 16,6 C 18,1 C 8,0 km/h (2 Bft) 96 %
19.06.2019 07:10 17,9 C 91 % 1006,4 hPa 0,0 l/m 2 min 0 min 0,000 mm 0,9 UV-I 188 W/m 16,4 C 17,6 C 9,7 km/h (2 Bft) 95 %
19.06.2019 07:08 17,7 C 91 % 1006,5 hPa 0,0 l/m 2 min 0 min 0,000 mm 0,8 UV-I 181 W/m 16,2 C 17,4 C 9,7 km/h (2 Bft) 96 %
19.06.2019 07:06 17,6 C 91 % 1006,5 hPa 0,0 l/m 2 min 0 min 0,000 mm 0,8 UV-I 176 W/m 16,1 C 16,6 C 9,7 km/h (2 Bft) 98 %
19.06.2019 07:04 17,4 C 91 % 1006,6 hPa 0,0 l/m 2 min 0 min 0,051 mm 0,8 UV-I 168 W/m 15,9 C 16,2 C 11,3 km/h (2 Bft) 98 %
19.06.2019 07:00 17,2 C 91 % 1006,6 hPa 0,0 l/m 2 min 0 min 0,000 mm 0,8 UV-I 158 W/m 15,7 C 16,0 C 11,3 km/h (2 Bft) 91 %
19.06.2019 06:58 17,1 C 91 % 1006,5 hPa 0,0 l/m 2 min 0 min 0,000 mm 0,8 UV-I 153 W/m 15,6 C 15,4 C 12,9 km/h (3 Bft) 96 %
19.06.2019 06:56 17,1 C 91 % 1006,6 hPa 0,0 l/m 2 min 0 min 0,000 mm 0,8 UV-I 148 W/m 15,6 C 15,0 C 14,5 km/h (3 Bft) 96 %
19.06.2019 06:54 17,0 C 92 % 1006,5 hPa 0,0 l/m 2 min 0 min 0,000 mm 0,7 UV-I 143 W/m 15,7 C 14,7 C 14,5 km/h (3 Bft) 96 %
19.06.2019 06:52 16,8 C 92 % 1006,5 hPa 0,0 l/m 2 min 0 min 0,000 mm 0,7 UV-I 137 W/m 15,5 C 14,3 C 14,5 km/h (3 Bft) 91 %
19.06.2019 06:50 16,7 C 93 % 1006,5 hPa 0,0 l/m 2 min 0 min 0,000 mm 0,7 UV-I 131 W/m 15,6 C 14,2 C 14,5 km/h (3 Bft) 96 %
19.06.2019 06:48 16,6 C 93 % 1006,5 hPa 0,0 l/m 2 min 0 min 0,000 mm 0,7 UV-I 126 W/m 15,5 C 13,9 C 14,5 km/h (3 Bft) 98 %
19.06.2019 06:46 16,4 C 93 % 1006,6 hPa 0,0 l/m 2 min 0 min 0,000 mm 0,7 UV-I 121 W/m 15,3 C 14,4 C 12,9 km/h (3 Bft) 92 %
19.06.2019 06:44 16,3 C 93 % 1006,6 hPa 0,0 l/m 2 min 0 min 0,000 mm 0,7 UV-I 116 W/m 15,2 C 15,0 C 14,5 km/h (3 Bft) 96 %
19.06.2019 06:42 16,2 C 93 % 1006,7 hPa 0,0 l/m 0 min 0 min 0,000 mm 0,7 UV-I 111 W/m 15,1 C 15,0 C 11,3 km/h (2 Bft) 94 %
19.06.2019 06:40 16,2 C 93 % 1006,7 hPa 0,0 l/m 0 min 0 min 0,000 mm 0,7 UV-I 108 W/m 15,1 C 14,7 C 12,9 km/h (3 Bft) 94 %
19.06.2019 06:38 16,1 C 93 % 1006,7 hPa 0,0 l/m 0 min 0 min 0,000 mm 0,7 UV-I 103 W/m 15,0 C 14,8 C 12,9 km/h (3 Bft) 94 %
19.06.2019 06:36 16,1 C 93 % 1006,7 hPa 0,0 l/m 0 min 0 min 0,000 mm 0,6 UV-I 98 W/m 15,0 C 14,8 C 12,9 km/h (3 Bft) 94 %
19.06.2019 06:34 16,0 C 93 % 1006,7 hPa 0,0 l/m 0 min 0 min 0,000 mm 0,6 UV-I 93 W/m 14,9 C 14,8 C 12,9 km/h (3 Bft) 96 %
19.06.2019 06:32 15,9 C 93 % 1006,7 hPa 0,0 l/m 0 min 0 min 0,000 mm 0,6 UV-I 89 W/m 14,8 C 14,5 C 12,9 km/h (3 Bft) 98 %
19.06.2019 06:30 15,9 C 93 % 1006,7 hPa 0,0 l/m 0 min 0 min 0,000 mm 0,6 UV-I 85 W/m 14,8 C 14,0 C 12,9 km/h (3 Bft) 98 %
19.06.2019 06:28 15,8 C 93 % 1006,7 hPa 0,0 l/m 0 min 0 min 0,000 mm 0,6 UV-I 81 W/m 14,7 C 14,2 C 12,9 km/h (3 Bft) 100 %
19.06.2019 06:26 15,7 C 93 % 1006,7 hPa 0,0 l/m 0 min 0 min 0,000 mm 0,6 UV-I 77 W/m 14,6 C 14,2 C 11,3 km/h (2 Bft) 98 %
19.06.2019 06:24 15,7 C 94 % 1006,8 hPa 0,0 l/m 0 min 0 min 0,000 mm 0,6 UV-I 71 W/m 14,7 C 14,5 C 12,9 km/h (3 Bft) 97 %
19.06.2019 06:20 15,5 C 94 % 1006,9 hPa 0,0 l/m 0 min 0 min 0,000 mm 0,6 UV-I 65 W/m 14,5 C 14,7 C 11,3 km/h (2 Bft) 100 %
19.06.2019 06:18 15,4 C 93 % 1006,9 hPa 0,0 l/m 0 min 0 min 0,000 mm 0,6 UV-I 60 W/m 14,3 C 14,5 C 11,3 km/h (2 Bft) 98 %
19.06.2019 06:16 15,3 C 93 % 1006,9 hPa 0,0 l/m 0 min 0 min 0,000 mm 0,6 UV-I 57 W/m 14,2 C 14,4 C 11,3 km/h (2 Bft) 98 %
19.06.2019 06:14 15,3 C 93 % 1006,9 hPa 0,0 l/m 0 min 0 min 0,000 mm 0,6 UV-I 52 W/m 14,2 C 14,1 C 11,3 km/h (2 Bft) 100 %
19.06.2019 06:12 15,2 C 93 % 1006,9 hPa 0,0 l/m 0 min 0 min 0,000 mm 0,6 UV-I 50 W/m 14,1 C 14,3 C 11,3 km/h (2 Bft) 98 %
19.06.2019 06:10 15,2 C 93 % 1007,0 hPa 0,0 l/m 0 min 0 min 0,000 mm 0,6 UV-I 46 W/m 14,1 C 14,8 C 9,7 km/h (2 Bft) 100 %
19.06.2019 06:08 15,2 C 93 % 1007,0 hPa 0,0 l/m 0 min 0 min 0,000 mm 0,0 UV-I 42 W/m 14,1 C 14,4 C 9,7 km/h (2 Bft) 100 %
19.06.2019 06:06 15,2 C 93 % 1007,0 hPa 0,0 l/m 0 min 0 min 0,000 mm 0,0 UV-I 39 W/m 14,1 C 14,2 C 12,9 km/h (3 Bft) 100 %
19.06.2019 06:04 15,2 C 93 % 1007,1 hPa 0,0 l/m 0 min 0 min 0,025 mm 0,0 UV-I 35 W/m 14,1 C 14,3 C 11,3 km/h (2 Bft) 99 %
19.06.2019 06:00 15,2 C 93 % 1007,2 hPa 0,0 l/m 0 min 0 min 0,000 mm 0,0 UV-I 31 W/m 14,1 C 13,9 C 12,9 km/h (3 Bft) 96 %
19.06.2019 05:58 15,2 C 93 % 1007,2 hPa 0,0 l/m 0 min 0 min 0,000 mm 0,0 UV-I 28 W/m 14,1 C 14,0 C 12,9 km/h (3 Bft) 98 %
19.06.2019 05:56 15,2 C 93 % 1007,2 hPa 0,0 l/m 0 min 0 min 0,000 mm 0,0 UV-I 26 W/m 14,1 C 14,2 C 11,3 km/h (2 Bft) 98 %
19.06.2019 05:54 15,2 C 93 % 1007,2 hPa 0,0 l/m 0 min 0 min 0,000 mm 0,0 UV-I 24 W/m 14,1 C 14,2 C 9,7 km/h (2 Bft) 98 %
19.06.2019 05:52 15,2 C 93 % 1007,3 hPa 0,0 l/m 0 min 0 min 0,000 mm 0,0 UV-I 21 W/m 14,1 C 14,5 C 9,7 km/h (2 Bft) 98 %
19.06.2019 05:50 15,1 C 93 % 1007,2 hPa 0,0 l/m 0 min 0 min 0,000 mm 0,0 UV-I 20 W/m 14,0 C 14,3 C 11,3 km/h (2 Bft) 98 %
19.06.2019 05:48 15,1 C 93 % 1007,3 hPa 0,0 l/m 0 min 0 min 0,000 mm 0,0 UV-I 19 W/m 14,0 C 14,3 C 9,7 km/h (2 Bft) 98 %
19.06.2019 05:46 15,0 C 93 % 1007,3 hPa 0,0 l/m 0 min 0 min 0,000 mm 0,0 UV-I 17 W/m 13,9 C 14,1 C 9,7 km/h (2 Bft) 95 %
19.06.2019 05:44 15,0 C 93 % 1007,3 hPa 0,0 l/m 0 min 0 min 0,000 mm 0,0 UV-I 16 W/m 13,9 C 13,7 C 11,3 km/h (2 Bft) 98 %
19.06.2019 05:42 15,0 C 92 % 1007,3 hPa 0,0 l/m 0 min 0 min 0,000 mm 0,0 UV-I 14 W/m 13,7 C 13,2 C 12,9 km/h (3 Bft) 98 %
19.06.2019 05:40 15,0 C 92 % 1007,3 hPa 0,0 l/m 0 min 0 min 0,000 mm 0,0 UV-I 13 W/m 13,7 C 13,2 C 12,9 km/h (3 Bft) 96 %
19.06.2019 05:38 15,0 C 92 % 1007,3 hPa 0,0 l/m 0 min 0 min 0,000 mm 0,0 UV-I 13 W/m 13,7 C 13,0 C 14,5 km/h (3 Bft) 98 %
19.06.2019 05:36 15,1 C 92 % 1007,4 hPa 0,0 l/m 0 min 0 min 0,000 mm 0,0 UV-I 11 W/m 13,8 C 13,8 C 12,9 km/h (3 Bft) 98 %
19.06.2019 05:34 15,2 C 92 % 1007,3 hPa 0,0 l/m 0 min 0 min 0,000 mm 0,0 UV-I 9 W/m 13,9 C 13,9 C 11,3 km/h (2 Bft) 96 %
19.06.2019 05:32 15,2 C 91 % 1007,3 hPa 0,0 l/m 0 min 0 min 0,000 mm 0,0 UV-I 9 W/m 13,7 C 13,3 C 12,9 km/h (3 Bft) 94 %
19.06.2019 05:30 15,3 C 92 % 1007,4 hPa 0,0 l/m 0 min 0 min 0,000 mm 0,0 UV-I 8 W/m 14,0 C 13,3 C 12,9 km/h (3 Bft) 98 %
19.06.2019 05:28 15,3 C 91 % 1007,3 hPa 0,0 l/m 0 min 0 min 0,000 mm 0,0 UV-I 7 W/m 13,8 C 13,4 C 12,9 km/h (3 Bft) 94 %
19.06.2019 05:26 15,4 C 91 % 1007,3 hPa 0,0 l/m 0 min 0 min 0,000 mm 0,0 UV-I 7 W/m 13,9 C 13,8 C 11,3 km/h (2 Bft) 96 %
19.06.2019 05:24 15,4 C 91 % 1007,3 hPa 0,0 l/m 0 min 0 min 0,000 mm 0,0 UV-I 6 W/m 13,9 C 13,5 C 12,9 km/h (3 Bft) 96 %
19.06.2019 05:22 15,6 C 91 % 1007,4 hPa 0,0 l/m 0 min 0 min 0,000 mm 0,0 UV-I 6 W/m 14,1 C 14,0 C 12,9 km/h (3 Bft) 91 %
19.06.2019 05:20 15,6 C 91 % 1007,3 hPa 0,0 l/m 0 min 0 min 0,000 mm 0,0 UV-I 4 W/m 14,1 C 13,6 C 12,9 km/h (3 Bft) 90 %
19.06.2019 05:18 15,7 C 90 % 1007,4 hPa 0,0 l/m 0 min 0 min 0,000 mm 0,0 UV-I 3 W/m 14,1 C 13,3 C 14,5 km/h (3 Bft) 94 %
19.06.2019 05:16 15,7 C 90 % 1007,3 hPa 0,0 l/m 0 min 0 min 0,000 mm 0,0 UV-I 2 W/m 14,1 C 13,6 C 12,9 km/h (3 Bft) 96 %
19.06.2019 05:14 15,7 C 90 % 1007,4 hPa 0,0 l/m 0 min 0 min 0,000 mm 0,0 UV-I 2 W/m 14,1 C 13,1 C 14,5 km/h (3 Bft) 94 %
19.06.2019 05:12 15,8 C 90 % 1007,4 hPa 0,0 l/m 0 min 0 min 0,000 mm 0,0 UV-I 0 W/m 14,2 C 14,0 C 12,9 km/h (3 Bft) 92 %
19.06.2019 05:10 15,8 C 92 % 1007,4 hPa 0,0 l/m 0 min 0 min 0,000 mm 0,0 UV-I 0 W/m 14,5 C 13,9 C 12,9 km/h (3 Bft) 94 %
19.06.2019 05:08 15,8 C 90 % 1007,4 hPa 0,0 l/m 0 min 0 min 0,000 mm 0,0 UV-I 0 W/m 14,2 C 14,0 C 12,9 km/h (3 Bft) 93 %
19.06.2019 05:06 15,8 C 90 % 1007,4 hPa 0,0 l/m 0 min 0 min 0,000 mm 0,0 UV-I 0 W/m 14,2 C 14,8 C 11,3 km/h (2 Bft) 91 %
19.06.2019 05:04 15,9 C 90 % 1007,4 hPa 0,0 l/m 0 min 0 min 0,025 mm 0,0 UV-I 0 W/m 14,3 C 15,8 C 8,0 km/h (2 Bft) 94 %
19.06.2019 05:00 15,9 C 89 % 1007,5 hPa 0,0 l/m 0 min 0 min 0,000 mm 0,0 UV-I 0 W/m 14,1 C 15,9 C 9,7 km/h (2 Bft) 96 %
19.06.2019 04:58 16,0 C 89 % 1007,5 hPa 0,0 l/m 0 min 0 min 0,000 mm 0,0 UV-I 0 W/m 14,2 C 16,0 C 9,7 km/h (2 Bft) 97 %
19.06.2019 04:56 16,1 C 89 % 1007,4 hPa 0,0 l/m 0 min 0 min 0,000 mm 0,0 UV-I 0 W/m 14,3 C 15,8 C 11,3 km/h (2 Bft) 91 %
19.06.2019 04:54 16,1 C 89 % 1007,4 hPa 0,0 l/m 0 min 0 min 0,000 mm 0,0 UV-I 0 W/m 14,3 C 15,3 C 11,3 km/h (2 Bft) 96 %
19.06.2019 04:52 16,1 C 89 % 1007,4 hPa 0,0 l/m 0 min 0 min 0,000 mm 0,0 UV-I 0 W/m 14,3 C 15,4 C 9,7 km/h (2 Bft) 96 %
19.06.2019 04:50 16,2 C 89 % 1007,4 hPa 0,0 l/m 0 min 0 min 0,000 mm 0,0 UV-I 0 W/m 14,4 C 15,6 C 9,7 km/h (2 Bft) 96 %
19.06.2019 04:48 16,2 C 89 % 1007,5 hPa 0,0 l/m 0 min 0 min 0,000 mm 0,0 UV-I 0 W/m 14,4 C 15,3 C 9,7 km/h (2 Bft) 96 %
19.06.2019 04:46 16,2 C 88 % 1007,5 hPa 0,0 l/m 0 min 0 min 0,000 mm 0,0 UV-I 0 W/m 14,2 C 15,4 C 11,3 km/h (2 Bft) 92 %
19.06.2019 04:44 16,3 C 88 % 1007,4 hPa 0,0 l/m 0 min 0 min 0,000 mm 0,0 UV-I 0 W/m 14,3 C 15,2 C 11,3 km/h (2 Bft) 94 %
19.06.2019 04:42 16,3 C 88 % 1007,3 hPa 0,0 l/m 0 min 0 min 0,000 mm 0,0 UV-I 0 W/m 14,3 C 15,6 C 11,3 km/h (2 Bft) 96 %
19.06.2019 04:40 16,4 C 88 % 1007,3 hPa 0,0 l/m 0 min 0 min 0,000 mm 0,0 UV-I 0 W/m 14,4 C 15,7 C 9,7 km/h (2 Bft) 94 %
19.06.2019 04:38 16,4 C 88 % 1007,4 hPa 0,0 l/m 0 min 0 min 0,000 mm 0,0 UV-I 0 W/m 14,4 C 15,7 C 9,7 km/h (2 Bft) 98 %
19.06.2019 04:36 16,5 C 87 % 1007,4 hPa 0,0 l/m 0 min 0 min 0,000 mm 0,0 UV-I 0 W/m 14,3 C 15,4 C 11,3 km/h (2 Bft) 100 %
19.06.2019 04:34 16,6 C 87 % 1007,5 hPa 0,0 l/m 0 min 0 min 0,000 mm 0,0 UV-I 0 W/m 14,4 C 15,6 C 11,3 km/h (2 Bft) 100 %
19.06.2019 04:32 16,6 C 87 % 1007,5 hPa 0,0 l/m 0 min 0 min 0,000 mm 0,0 UV-I 0 W/m 14,4 C 15,6 C 11,3 km/h (2 Bft) 100 %
19.06.2019 04:30 16,7 C 87 % 1007,4 hPa 0,0 l/m 0 min 0 min 0,000 mm 0,0 UV-I 0 W/m 14,5 C 15,8 C 9,7 km/h (2 Bft) 100 %
19.06.2019 04:28 16,7 C 87 % 1007,5 hPa 0,0 l/m 0 min 0 min 0,000 mm 0,0 UV-I 0 W/m 14,5 C 15,7 C 11,3 km/h (2 Bft) 98 %
19.06.2019 04:26 16,8 C 87 % 1007,5 hPa 0,0 l/m 0 min 0 min 0,000 mm 0,0 UV-I 0 W/m 14,6 C 16,2 C 9,7 km/h (2 Bft) 100 %
19.06.2019 04:24 16,8 C 86 % 1007,6 hPa 0,0 l/m 0 min 0 min 0,000 mm 0,0 UV-I 0 W/m 14,4 C 15,9 C 9,7 km/h (2 Bft) 100 %
19.06.2019 04:22 16,9 C 86 % 1007,6 hPa 0,0 l/m 0 min 0 min 0,000 mm 0,0 UV-I 0 W/m 14,5 C 16,4 C 9,7 km/h (2 Bft) 100 %
19.06.2019 04:20 16,9 C 86 % 1007,6 hPa 0,0 l/m 0 min 0 min 0,000 mm 0,0 UV-I 0 W/m 14,5 C 16,1 C 9,7 km/h (2 Bft) 98 %
19.06.2019 04:18 17,0 C 86 % 1007,7 hPa 0,0 l/m 0 min 0 min 0,000 mm 0,0 UV-I 0 W/m 14,6 C 16,2 C 9,7 km/h (2 Bft) 98 %
19.06.2019 04:16 17,1 C 86 % 1007,7 hPa 0,0 l/m 0 min 0 min 0,000 mm 0,0 UV-I 0 W/m 14,7 C 16,9 C 8,0 km/h (2 Bft) 100 %
19.06.2019 04:14 17,1 C 86 % 1007,7 hPa 0,0 l/m 0 min 0 min 0,000 mm 0,0 UV-I 0 W/m 14,7 C 16,1 C 9,7 km/h (2 Bft) 100 %
19.06.2019 04:12 17,2 C 86 % 1007,7 hPa 0,0 l/m 0 min 0 min 0,000 mm 0,0 UV-I 0 W/m 14,8 C 16,6 C 9,7 km/h (2 Bft) 95 %
19.06.2019 04:10 17,2 C 86 % 1007,8 hPa 0,0 l/m 0 min 0 min 0,000 mm 0,0 UV-I 0 W/m 14,8 C 16,2 C 11,3 km/h (2 Bft) 100 %
19.06.2019 04:08 17,2 C 86 % 1007,8 hPa 0,0 l/m 0 min 0 min 0,000 mm 0,0 UV-I 0 W/m 14,8 C 15,9 C 11,3 km/h (2 Bft) 100 %
19.06.2019 04:06 17,2 C 86 % 1007,8 hPa 0,0 l/m 0 min 0 min 0,000 mm 0,0 UV-I 0 W/m 14,8 C 15,9 C 12,9 km/h (3 Bft) 98 %
19.06.2019 04:04 17,2 C 86 % 1007,9 hPa 0,0 l/m 0 min 0 min 0,026 mm 0,0 UV-I 0 W/m 14,8 C 16,4 C 9,7 km/h (2 Bft) 97 %
19.06.2019 04:00 17,2 C 86 % 1007,9 hPa 0,0 l/m 0 min 0 min 0,000 mm 0,0 UV-I 0 W/m 14,8 C 16,5 C 12,9 km/h (3 Bft) 97 %
19.06.2019 03:58 17,2 C 86 % 1007,9 hPa 0,0 l/m 0 min 0 min 0,000 mm 0,0 UV-I 0 W/m 14,8 C 16,0 C 11,3 km/h (2 Bft) 96 %
19.06.2019 03:56 17,2 C 86 % 1007,9 hPa 0,0 l/m 0 min 0 min 0,000 mm 0,0 UV-I 0 W/m 14,8 C 15,6 C 12,9 km/h (3 Bft) 96 %
19.06.2019 03:54 17,2 C 85 % 1007,9 hPa 0,0 l/m 0 min 0 min 0,000 mm 0,0 UV-I 0 W/m 14,7 C 16,1 C 11,3 km/h (2 Bft) 96 %
19.06.2019 03:52 17,2 C 85 % 1007,9 hPa 0,0 l/m 0 min 0 min 0,000 mm 0,0 UV-I 0 W/m 14,7 C 15,8 C 11,3 km/h (2 Bft) 91 %
19.06.2019 03:50 17,3 C 85 % 1007,9 hPa 0,0 l/m 0 min 0 min 0,000 mm 0,0 UV-I 0 W/m 14,8 C 15,7 C 14,5 km/h (3 Bft) 96 %
19.06.2019 03:48 17,3 C 85 % 1007,9 hPa 0,0 l/m 0 min 0 min 0,000 mm 0,0 UV-I 0 W/m 14,8 C 16,3 C 12,9 km/h (3 Bft) 96 %
19.06.2019 03:46 17,3 C 85 % 1008,0 hPa 0,0 l/m 0 min 0 min 0,000 mm 0,0 UV-I 0 W/m 14,8 C 16,6 C 11,3 km/h (2 Bft) 98 %
19.06.2019 03:44 17,3 C 85 % 1008,0 hPa 0,0 l/m 0 min 0 min 0,000 mm 0,0 UV-I 0 W/m 14,8 C 16,8 C 9,7 km/h (2 Bft) 98 %
19.06.2019 03:42 17,4 C 85 % 1008,0 hPa 0,0 l/m 0 min 0 min 0,000 mm 0,0 UV-I 0 W/m 14,8 C 16,7 C 12,9 km/h (3 Bft) 96 %
19.06.2019 03:40 17,4 C 85 % 1008,0 hPa 0,0 l/m 0 min 0 min 0,000 mm 0,0 UV-I 0 W/m 14,8 C 16,6 C 11,3 km/h (2 Bft) 98 %
19.06.2019 03:38 17,4 C 85 % 1008,0 hPa 0,0 l/m 0 min 0 min 0,000 mm 0,0 UV-I 0 W/m 14,8 C 16,7 C 11,3 km/h (2 Bft) 100 %
19.06.2019 03:36 17,5 C 85 % 1008,0 hPa 0,0 l/m 0 min 0 min 0,000 mm 0,0 UV-I 0 W/m 14,9 C 16,6 C 9,7 km/h (2 Bft) 96 %
19.06.2019 03:34 17,6 C 85 % 1008,0 hPa 0,0 l/m 0 min 0 min 0,000 mm 0,0 UV-I 0 W/m 15,0 C 16,6 C 11,3 km/h (2 Bft) 100 %
19.06.2019 03:32 17,6 C 85 % 1008,1 hPa 0,0 l/m 0 min 0 min 0,000 mm 0,0 UV-I 0 W/m 15,0 C 16,6 C 11,3 km/h (2 Bft) 100 %
19.06.2019 03:30 17,6 C 85 % 1008,1 hPa 0,0 l/m 0 min 0 min 0,000 mm 0,0 UV-I 0 W/m 15,0 C 16,4 C 12,9 km/h (3 Bft) 100 %
19.06.2019 03:28 17,6 C 85 % 1008,1 hPa 0,0 l/m 0 min 0 min 0,000 mm 0,0 UV-I 0 W/m 15,0 C 16,1 C 12,9 km/h (3 Bft) 98 %
19.06.2019 03:26 17,6 C 85 % 1008,1 hPa 0,0 l/m 0 min 0 min 0,000 mm 0,0 UV-I 0 W/m 15,0 C 16,1 C 12,9 km/h (3 Bft) 98 %
19.06.2019 03:24 17,6 C 85 % 1008,2 hPa 0,0 l/m 0 min 0 min 0,000 mm 0,0 UV-I 0 W/m 15,0 C 16,4 C 11,3 km/h (2 Bft) 98 %
19.06.2019 03:22 17,6 C 85 % 1008,2 hPa 0,0 l/m 0 min 0 min 0,000 mm 0,0 UV-I 0 W/m 15,0 C 16,3 C 12,9 km/h (3 Bft) 98 %
19.06.2019 03:20 17,6 C 85 % 1008,2 hPa 0,0 l/m 0 min 0 min 0,000 mm 0,0 UV-I 0 W/m 15,0 C 16,0 C 14,5 km/h (3 Bft) 98 %
19.06.2019 03:18 17,6 C 85 % 1008,2 hPa 0,0 l/m 0 min 0 min 0,000 mm 0,0 UV-I 0 W/m 15,0 C 16,4 C 12,9 km/h (3 Bft) 100 %
19.06.2019 03:16 17,6 C 85 % 1008,2 hPa 0,0 l/m 0 min 0 min 0,000 mm 0,0 UV-I 0 W/m 15,0 C 16,2 C 12,9 km/h (3 Bft) 98 %
19.06.2019 03:14 17,6 C 85 % 1008,2 hPa 0,0 l/m 0 min 0 min 0,000 mm 0,0 UV-I 0 W/m 15,0 C 15,9 C 12,9 km/h (3 Bft) 97 %
19.06.2019 03:12 17,6 C 85 % 1008,2 hPa 0,0 l/m 0 min 0 min 0,000 mm 0,0 UV-I 0 W/m 15,0 C 15,6 C 14,5 km/h (3 Bft) 96 %
19.06.2019 03:10 17,6 C 85 % 1008,2 hPa 0,0 l/m 0 min 0 min 0,000 mm 0,0 UV-I 0 W/m 15,0 C 15,9 C 12,9 km/h (3 Bft) 94 %
19.06.2019 03:08 17,6 C 85 % 1008,3 hPa 0,0 l/m 0 min 0 min 0,000 mm 0,0 UV-I 0 W/m 15,0 C 15,8 C 12,9 km/h (3 Bft) 96 %
19.06.2019 03:06 17,6 C 85 % 1008,3 hPa 0,0 l/m 0 min 0 min 0,000 mm 0,0 UV-I 0 W/m 15,0 C 15,9 C 14,5 km/h (3 Bft) 98 %
19.06.2019 03:04 17,6 C 85 % 1008,3 hPa 0,0 l/m 0 min 0 min 0,000 mm 0,0 UV-I 0 W/m 15,0 C 15,5 C 16,1 km/h (3 Bft) 97 %
19.06.2019 03:00 17,6 C 86 % 1008,3 hPa 0,0 l/m 0 min 0 min 0,025 mm 0,0 UV-I 0 W/m 15,2 C 15,8 C 12,9 km/h (3 Bft) 98 %
19.06.2019 02:58 17,6 C 86 % 1008,3 hPa 0,0 l/m 0 min 0 min 0,000 mm 0,0 UV-I 0 W/m 15,2 C 15,9 C 14,5 km/h (3 Bft) 96 %
19.06.2019 02:56 17,6 C 86 % 1008,2 hPa 0,0 l/m 0 min 0 min 0,000 mm 0,0 UV-I 0 W/m 15,2 C 15,8 C 14,5 km/h (3 Bft) 98 %
19.06.2019 02:54 17,6 C 86 % 1008,3 hPa 0,0 l/m 0 min 0 min 0,000 mm 0,0 UV-I 0 W/m 15,2 C 16,1 C 12,9 km/h (3 Bft) 98 %
19.06.2019 02:52 17,6 C 86 % 1008,3 hPa 0,0 l/m 0 min 0 min 0,000 mm 0,0 UV-I 0 W/m 15,2 C 16,1 C 14,5 km/h (3 Bft) 98 %
19.06.2019 02:50 17,6 C 86 % 1008,3 hPa 0,0 l/m 0 min 0 min 0,000 mm 0,0 UV-I 0 W/m 15,2 C 15,8 C 14,5 km/h (3 Bft) 96 %
19.06.2019 02:48 17,6 C 86 % 1008,3 hPa 0,0 l/m 0 min 0 min 0,000 mm 0,0 UV-I 0 W/m 15,2 C 15,7 C 14,5 km/h (3 Bft) 96 %
19.06.2019 02:46 17,6 C 86 % 1008,3 hPa 0,0 l/m 0 min 0 min 0,000 mm 0,0 UV-I 0 W/m 15,2 C 16,0 C 14,5 km/h (3 Bft) 91 %
19.06.2019 02:44 17,6 C 86 % 1008,3 hPa 0,0 l/m 0 min 0 min 0,000 mm 0,0 UV-I 0 W/m 15,2 C 16,5 C 11,3 km/h (2 Bft) 98 %
19.06.2019 02:42 17,7 C 85 % 1008,3 hPa 0,0 l/m 0 min 0 min 0,000 mm 0,0 UV-I 0 W/m 15,1 C 16,7 C 12,9 km/h (3 Bft) 96 %
19.06.2019 02:40 17,7 C 85 % 1008,3 hPa 0,0 l/m 0 min 0 min 0,000 mm 0,0 UV-I 0 W/m 15,1 C 17,1 C 11,3 km/h (2 Bft) 96 %
19.06.2019 02:38 17,7 C 86 % 1008,3 hPa 0,0 l/m 0 min 0 min 0,000 mm 0,0 UV-I 0 W/m 15,3 C 17,0 C 12,9 km/h (3 Bft) 96 %
19.06.2019 02:36 17,8 C 86 % 1008,4 hPa 0,0 l/m 0 min 0 min 0,000 mm 0,0 UV-I 0 W/m 15,4 C 16,8 C 11,3 km/h (2 Bft) 98 %
19.06.2019 02:34 17,8 C 85 % 1008,4 hPa 0,0 l/m 0 min 0 min 0,000 mm 0,0 UV-I 0 W/m 15,2 C 17,0 C 11,3 km/h (2 Bft) 100 %
19.06.2019 02:32 17,8 C 86 % 1008,4 hPa 0,0 l/m 0 min 0 min 0,000 mm 0,0 UV-I 0 W/m 15,4 C 16,8 C 12,9 km/h (3 Bft) 98 %
19.06.2019 02:30 17,8 C 86 % 1008,4 hPa 0,0 l/m 0 min 0 min 0,000 mm 0,0 UV-I 0 W/m 15,4 C 17,2 C 9,7 km/h (2 Bft) 94 %
19.06.2019 02:28 17,8 C 86 % 1008,4 hPa 0,0 l/m 0 min 0 min 0,000 mm 0,0 UV-I 0 W/m 15,4 C 16,6 C 12,9 km/h (3 Bft) 98 %
19.06.2019 02:26 17,8 C 86 % 1008,4 hPa 0,0 l/m 0 min 0 min 0,000 mm 0,0 UV-I 0 W/m 15,4 C 17,2 C 11,3 km/h (2 Bft) 98 %
19.06.2019 02:24 17,8 C 86 % 1008,4 hPa 0,0 l/m 0 min 0 min 0,000 mm 0,0 UV-I 0 W/m 15,4 C 17,2 C 11,3 km/h (2 Bft) 98 %
19.06.2019 02:22 17,8 C 86 % 1008,4 hPa 0,0 l/m 0 min 0 min 0,000 mm 0,0 UV-I 0 W/m 15,4 C 16,8 C 12,9 km/h (3 Bft) 96 %
19.06.2019 02:20 17,8 C 86 % 1008,4 hPa 0,0 l/m 0 min 0 min 0,000 mm 0,0 UV-I 0 W/m 15,4 C 17,2 C 12,9 km/h (3 Bft) 98 %
19.06.2019 02:18 17,9 C 86 % 1008,4 hPa 0,0 l/m 0 min 0 min 0,000 mm 0,0 UV-I 0 W/m 15,5 C 16,8 C 14,5 km/h (3 Bft) 100 %
19.06.2019 02:16 17,9 C 86 % 1008,4 hPa 0,0 l/m 0 min 0 min 0,000 mm 0,0 UV-I 0 W/m 15,5 C 16,6 C 12,9 km/h (3 Bft) 96 %
19.06.2019 02:14 17,9 C 86 % 1008,5 hPa 0,0 l/m 0 min 0 min 0,000 mm 0,0 UV-I 0 W/m 15,5 C 16,9 C 12,9 km/h (3 Bft) 100 %
19.06.2019 02:12 17,9 C 86 % 1008,5 hPa 0,0 l/m 0 min 0 min 0,000 mm 0,0 UV-I 0 W/m 15,5 C 16,9 C 12,9 km/h (3 Bft) 96 %
19.06.2019 02:10 17,9 C 86 % 1008,5 hPa 0,0 l/m 0 min 0 min 0,000 mm 0,0 UV-I 0 W/m 15,5 C 16,4 C 12,9 km/h (3 Bft) 98 %
19.06.2019 02:08 17,9 C 86 % 1008,5 hPa 0,0 l/m 0 min 0 min 0,000 mm 0,0 UV-I 0 W/m 15,5 C 16,9 C 12,9 km/h (3 Bft) 100 %
19.06.2019 02:06 18,0 C 86 % 1008,6 hPa 0,0 l/m 0 min 0 min 0,000 mm 0,0 UV-I 0 W/m 15,6 C 16,5 C 12,9 km/h (3 Bft) 100 %
19.06.2019 02:04 18,0 C 86 % 1008,6 hPa 0,0 l/m 0 min 0 min 0,026 mm 0,0 UV-I 0 W/m 15,6 C 17,2 C 12,9 km/h (3 Bft) 100 %
19.06.2019 02:00 18,1 C 86 % 1008,6 hPa 0,0 l/m 0 min 0 min 0,000 mm 0,0 UV-I 0 W/m 15,7 C 16,8 C 14,5 km/h (3 Bft) 100 %
19.06.2019 01:58 18,1 C 86 % 1008,6 hPa 0,0 l/m 0 min 0 min 0,000 mm 0,0 UV-I 0 W/m 15,7 C 17,0 C 12,9 km/h (3 Bft) 100 %
19.06.2019 01:56 18,2 C 86 % 1008,6 hPa 0,0 l/m 0 min 0 min 0,000 mm 0,0 UV-I 0 W/m 15,8 C 17,2 C 12,9 km/h (3 Bft) 100 %
19.06.2019 01:54 18,2 C 86 % 1008,6 hPa 0,0 l/m 0 min 0 min 0,000 mm 0,0 UV-I 0 W/m 15,8 C 17,2 C 14,5 km/h (3 Bft) 100 %
19.06.2019 01:52 18,2 C 86 % 1008,7 hPa 0,0 l/m 0 min 0 min 0,000 mm 0,0 UV-I 0 W/m 15,8 C 17,8 C 12,9 km/h (3 Bft) 98 %
19.06.2019 01:50 18,2 C 86 % 1008,7 hPa 0,0 l/m 0 min 0 min 0,000 mm 0,0 UV-I 0 W/m 15,8 C 17,4 C 14,5 km/h (3 Bft) 100 %
19.06.2019 01:48 18,3 C 86 % 1008,8 hPa 0,0 l/m 0 min 0 min 0,000 mm 0,0 UV-I 0 W/m 15,9 C 17,7 C 11,3 km/h (2 Bft) 96 %
19.06.2019 01:46 18,3 C 86 % 1008,8 hPa 0,0 l/m 0 min 0 min 0,000 mm 0,0 UV-I 0 W/m 15,9 C 17,7 C 11,3 km/h (2 Bft) 100 %
19.06.2019 01:44 18,3 C 85 % 1008,8 hPa 0,0 l/m 0 min 0 min 0,000 mm 0,0 UV-I 0 W/m 15,7 C 17,4 C 11,3 km/h (2 Bft) 100 %
19.06.2019 01:42 18,3 C 85 % 1008,8 hPa 0,0 l/m 0 min 0 min 0,000 mm 0,0 UV-I 0 W/m 15,7 C 17,6 C 11,3 km/h (2 Bft) 100 %
19.06.2019 01:40 18,4 C 85 % 1008,8 hPa 0,0 l/m 0 min 0 min 0,000 mm 0,0 UV-I 0 W/m 15,8 C 17,7 C 11,3 km/h (2 Bft) 100 %
19.06.2019 01:38 18,4 C 85 % 1008,9 hPa 0,0 l/m 0 min 0 min 0,000 mm 0,0 UV-I 0 W/m 15,8 C 18,0 C 9,7 km/h (2 Bft) 100 %
19.06.2019 01:36 18,5 C 85 % 1008,9 hPa 0,0 l/m 0 min 0 min 0,000 mm 0,0 UV-I 0 W/m 15,9 C 18,0 C 9,7 km/h (2 Bft) 100 %
19.06.2019 01:34 18,6 C 85 % 1008,9 hPa 0,0 l/m 0 min 0 min 0,000 mm 0,0 UV-I 0 W/m 16,0 C 18,5 C 11,3 km/h (2 Bft) 98 %
19.06.2019 01:32 18,6 C 85 % 1008,9 hPa 0,0 l/m 0 min 0 min 0,000 mm 0,0 UV-I 0 W/m 16,0 C 18,1 C 9,7 km/h (2 Bft) 95 %
19.06.2019 01:30 18,6 C 85 % 1008,9 hPa 0,0 l/m 0 min 0 min 0,000 mm 0,0 UV-I 0 W/m 16,0 C 17,7 C 11,3 km/h (2 Bft) 98 %
19.06.2019 01:28 18,6 C 85 % 1009,0 hPa 0,0 l/m 0 min 0 min 0,000 mm 0,0 UV-I 0 W/m 16,0 C 18,2 C 11,3 km/h (2 Bft) 98 %
19.06.2019 01:26 18,6 C 85 % 1009,0 hPa 0,0 l/m 0 min 0 min 0,000 mm 0,0 UV-I 0 W/m 16,0 C 18,0 C 9,7 km/h (2 Bft) 100 %
19.06.2019 01:24 18,7 C 85 % 1009,0 hPa 0,0 l/m 0 min 0 min 0,000 mm 0,0 UV-I 0 W/m 16,1 C 18,3 C 12,9 km/h (3 Bft) 98 %
19.06.2019 01:22 18,7 C 85 % 1009,0 hPa 0,0 l/m 0 min 0 min 0,000 mm 0,0 UV-I 0 W/m 16,1 C 18,6 C 9,7 km/h (2 Bft) 98 %
19.06.2019 01:20 18,7 C 85 % 1009,1 hPa 0,0 l/m 0 min 0 min 0,000 mm 0,0 UV-I 0 W/m 16,1 C 18,0 C 11,3 km/h (2 Bft) 100 %
19.06.2019 01:18 18,7 C 86 % 1009,1 hPa 0,0 l/m 0 min 0 min 0,000 mm 0,0 UV-I 0 W/m 16,3 C 17,9 C 16,1 km/h (3 Bft) 96 %
19.06.2019 01:16 18,7 C 86 % 1009,1 hPa 0,0 l/m 0 min 0 min 0,000 mm 0,0 UV-I 0 W/m 16,3 C 17,9 C 12,9 km/h (3 Bft) 94 %
19.06.2019 01:14 18,8 C 86 % 1009,1 hPa 0,0 l/m 0 min 0 min 0,000 mm 0,0 UV-I 0 W/m 16,4 C 18,4 C 9,7 km/h (2 Bft) 89 %
19.06.2019 01:12 18,8 C 86 % 1009,1 hPa 0,0 l/m 0 min 0 min 0,000 mm 0,0 UV-I 0 W/m 16,4 C 18,0 C 11,3 km/h (2 Bft) 91 %
19.06.2019 01:10 18,8 C 86 % 1009,1 hPa 0,0 l/m 0 min 0 min 0,000 mm 0,0 UV-I 0 W/m 16,4 C 18,1 C 12,9 km/h (3 Bft) 91 %
19.06.2019 01:08 18,9 C 86 % 1009,1 hPa 0,0 l/m 0 min 0 min 0,000 mm 0,0 UV-I 0 W/m 16,5 C 17,9 C 12,9 km/h (3 Bft) 95 %
19.06.2019 01:06 18,9 C 86 % 1009,1 hPa 0,0 l/m 0 min 0 min 0,000 mm 0,0 UV-I 0 W/m 16,5 C 18,0 C 16,1 km/h (3 Bft) 92 %
19.06.2019 01:04 18,9 C 86 % 1009,1 hPa 0,0 l/m 0 min 0 min 0,000 mm 0,0 UV-I 0 W/m 16,5 C 18,2 C 12,9 km/h (3 Bft) 93 %
19.06.2019 01:00 18,9 C 86 % 1009,1 hPa 0,0 l/m 0 min 0 min 0,025 mm 0,0 UV-I 0 W/m 16,5 C 17,7 C 14,5 km/h (3 Bft) 91 %
19.06.2019 00:58 19,0 C 86 % 1009,1 hPa 0,0 l/m 0 min 0 min 0,000 mm 0,0 UV-I 0 W/m 16,6 C 17,6 C 14,5 km/h (3 Bft) 89 %
19.06.2019 00:56 19,1 C 86 % 1009,2 hPa 0,0 l/m 0 min 0 min 0,000 mm 0,0 UV-I 0 W/m 16,7 C 18,3 C 12,9 km/h (3 Bft) 94 %
19.06.2019 00:54 19,1 C 86 % 1009,2 hPa 0,0 l/m 0 min 0 min 0,000 mm 0,0 UV-I 0 W/m 16,7 C 18,1 C 11,3 km/h (2 Bft) 93 %
19.06.2019 00:52 19,1 C 86 % 1009,2 hPa 0,0 l/m 0 min 0 min 0,000 mm 0,0 UV-I 0 W/m 16,7 C 17,9 C 12,9 km/h (3 Bft) 91 %
19.06.2019 00:50 19,1 C 86 % 1009,2 hPa 0,0 l/m 0 min 0 min 0,000 mm 0,0 UV-I 0 W/m 16,7 C 18,5 C 11,3 km/h (2 Bft) 94 %
19.06.2019 00:48 19,2 C 86 % 1009,3 hPa 0,0 l/m 0 min 0 min 0,000 mm 0,0 UV-I 0 W/m 16,8 C 18,4 C 14,5 km/h (3 Bft) 96 %
19.06.2019 00:46 19,2 C 86 % 1009,3 hPa 0,0 l/m 0 min 0 min 0,000 mm 0,0 UV-I 0 W/m 16,8 C 18,3 C 11,3 km/h (2 Bft) 98 %
19.06.2019 00:44 19,2 C 86 % 1009,2 hPa 0,0 l/m 0 min 0 min 0,000 mm 0,0 UV-I 0 W/m 16,8 C 18,8 C 9,7 km/h (2 Bft) 98 %
19.06.2019 00:42 19,2 C 86 % 1009,2 hPa 0,0 l/m 0 min 0 min 0,000 mm 0,0 UV-I 0 W/m 16,8 C 18,4 C 11,3 km/h (2 Bft) 98 %
19.06.2019 00:40 19,2 C 86 % 1009,3 hPa 0,0 l/m 0 min 0 min 0,000 mm 0,0 UV-I 0 W/m 16,8 C 18,9 C 9,7 km/h (2 Bft) 98 %
19.06.2019 00:38 19,2 C 86 % 1009,3 hPa 0,0 l/m 0 min 0 min 0,000 mm 0,0 UV-I 0 W/m 16,8 C 18,6 C 9,7 km/h (2 Bft) 96 %
19.06.2019 00:36 19,2 C 86 % 1009,3 hPa 0,0 l/m 0 min 0 min 0,000 mm 0,0 UV-I 0 W/m 16,8 C 18,8 C 9,7 km/h (2 Bft) 96 %
19.06.2019 00:34 19,3 C 86 % 1009,3 hPa 0,0 l/m 0 min 0 min 0,000 mm 0,0 UV-I 0 W/m 16,9 C 19,0 C 11,3 km/h (2 Bft) 96 %
19.06.2019 00:32 19,3 C 86 % 1009,4 hPa 0,0 l/m 0 min 0 min 0,000 mm 0,0 UV-I 0 W/m 16,9 C 19,3 C 9,7 km/h (2 Bft) 96 %
19.06.2019 00:30 19,3 C 86 % 1009,4 hPa 0,0 l/m 0 min 0 min 0,000 mm 0,0 UV-I 0 W/m 16,9 C 18,9 C 11,3 km/h (2 Bft) 98 %
19.06.2019 00:28 19,4 C 86 % 1009,4 hPa 0,0 l/m 0 min 0 min 0,000 mm 0,0 UV-I 0 W/m 17,0 C 19,3 C 9,7 km/h (2 Bft) 98 %
19.06.2019 00:26 19,4 C 86 % 1009,4 hPa 0,0 l/m 0 min 0 min 0,000 mm 0,0 UV-I 0 W/m 17,0 C 18,9 C 12,9 km/h (3 Bft) 98 %
19.06.2019 00:24 19,4 C 86 % 1009,4 hPa 0,0 l/m 0 min 0 min 0,000 mm 0,0 UV-I 0 W/m 17,0 C 19,1 C 14,5 km/h (3 Bft) 98 %
19.06.2019 00:20 19,5 C 86 % 1009,4 hPa 0,0 l/m 0 min 0 min 0,000 mm 0,0 UV-I 0 W/m 17,1 C 19,2 C 11,3 km/h (2 Bft) 98 %
19.06.2019 00:18 19,5 C 86 % 1009,4 hPa 0,0 l/m 0 min 0 min 0,000 mm 0,0 UV-I 0 W/m 17,1 C 19,0 C 9,7 km/h (2 Bft) 98 %
19.06.2019 00:16 19,6 C 86 % 1009,4 hPa 0,0 l/m 0 min 0 min 0,000 mm 0,0 UV-I 0 W/m 17,2 C 19,1 C 9,7 km/h (2 Bft) 96 %
19.06.2019 00:14 19,6 C 86 % 1009,4 hPa 0,0 l/m 0 min 0 min 0,000 mm 0,0 UV-I 0 W/m 17,2 C 19,1 C 11,3 km/h (2 Bft) 96 %
19.06.2019 00:12 19,6 C 86 % 1009,4 hPa 0,0 l/m 0 min 0 min 0,000 mm 0,0 UV-I 0 W/m 17,2 C 19,2 C 12,9 km/h (3 Bft) 96 %
19.06.2019 00:10 19,6 C 86 % 1009,4 hPa 0,0 l/m 0 min 0 min 0,000 mm 0,0 UV-I 0 W/m 17,2 C 19,4 C 9,7 km/h (2 Bft) 93 %
19.06.2019 00:08 19,6 C 86 % 1009,4 hPa 0,0 l/m 0 min 0 min 0,000 mm 0,0 UV-I 0 W/m 17,2 C 19,3 C 9,7 km/h (2 Bft) 98 %
19.06.2019 00:06 19,6 C 86 % 1009,4 hPa 0,0 l/m 0 min 0 min 0,000 mm 0,0 UV-I 0 W/m 17,2 C 19,6 C 8,0 km/h (2 Bft) 98 %
19.06.2019 00:04 19,7 C 86 % 1009,5 hPa 0,0 l/m 0 min 0 min 0,000 mm 0,0 UV-I 0 W/m 17,3 C 19,5 C 11,3 km/h (2 Bft) 95 %
19.06.2019 00:00 19,7 C 85 % 1009,5 hPa 0,0 l/m 0 min 0 min 0,000 mm 0,0 UV-I 0 W/m 17,1 C 19,0 C 9,7 km/h (2 Bft) 98 %
18.06.2019 23:58 19,7 C 85 % 1009,5 hPa 0,0 l/m 0 min 0 min 0,000 mm 0,0 UV-I 0 W/m 17,1 C 19,7 C 9,7 km/h (2 Bft) 98 %
18.06.2019 23:56 19,7 C 85 % 1009,6 hPa 0,0 l/m 0 min 0 min 0,000 mm 0,0 UV-I 0 W/m 17,1 C 19,0 C 11,3 km/h (2 Bft) 96 %
18.06.2019 23:54 19,7 C 85 % 1009,6 hPa 0,0 l/m 0 min 0 min 0,000 mm 0,0 UV-I 0 W/m 17,1 C 19,3 C 9,7 km/h (2 Bft) 93 %
18.06.2019 23:52 19,8 C 85 % 1009,6 hPa 0,0 l/m 0 min 0 min 0,000 mm 0,0 UV-I 0 W/m 17,2 C 19,3 C 9,7 km/h (2 Bft) 94 %
18.06.2019 23:50 19,8 C 85 % 1009,7 hPa 0,0 l/m 0 min 0 min 0,000 mm 0,0 UV-I 0 W/m 17,2 C 19,2 C 9,7 km/h (2 Bft) 98 %
18.06.2019 23:48 19,8 C 85 % 1009,7 hPa 0,0 l/m 0 min 0 min 0,000 mm 0,0 UV-I 0 W/m 17,2 C 19,7 C 9,7 km/h (2 Bft) 98 %
18.06.2019 23:46 19,9 C 85 % 1009,7 hPa 0,0 l/m 0 min 0 min 0,000 mm 0,0 UV-I 0 W/m 17,3 C 19,4 C 9,7 km/h (2 Bft) 98 %
18.06.2019 23:44 19,9 C 85 % 1009,7 hPa 0,0 l/m 0 min 0 min 0,000 mm 0,0 UV-I 0 W/m 17,3 C 19,2 C 9,7 km/h (2 Bft) 96 %
18.06.2019 23:42 19,9 C 84 % 1009,7 hPa 0,0 l/m 0 min 0 min 0,000 mm 0,0 UV-I 0 W/m 17,1 C 19,5 C 9,7 km/h (2 Bft) 98 %
18.06.2019 23:40 20,0 C 84 % 1009,7 hPa 0,0 l/m 0 min 0 min 0,000 mm 0,0 UV-I 0 W/m 17,2 C 19,5 C 9,7 km/h (2 Bft) 96 %
18.06.2019 23:38 20,0 C 84 % 1009,7 hPa 0,0 l/m 0 min 0 min 0,000 mm 0,0 UV-I 0 W/m 17,2 C 19,7 C 11,3 km/h (2 Bft) 96 %
18.06.2019 23:36 20,1 C 84 % 1009,7 hPa 0,0 l/m 0 min 0 min 0,000 mm 0,0 UV-I 0 W/m 17,3 C 19,7 C 9,7 km/h (2 Bft) 91 %
18.06.2019 23:34 20,1 C 84 % 1009,7 hPa 0,0 l/m 0 min 0 min 0,000 mm 0,0 UV-I 0 W/m 17,3 C 19,8 C 12,9 km/h (3 Bft) 98 %
18.06.2019 23:32 20,2 C 83 % 1009,8 hPa 0,0 l/m 0 min 0 min 0,000 mm 0,0 UV-I 0 W/m 17,2 C 20,2 C 8,0 km/h (2 Bft) 94 %
18.06.2019 23:30 20,2 C 83 % 1009,8 hPa 0,0 l/m 0 min 0 min 0,000 mm 0,0 UV-I 0 W/m 17,2 C 20,2 C 8,0 km/h (2 Bft) 98 %
18.06.2019 23:28 20,3 C 83 % 1009,7 hPa 0,0 l/m 0 min 0 min 0,000 mm 0,0 UV-I 0 W/m 17,3 C 20,3 C 8,0 km/h (2 Bft) 100 %
18.06.2019 23:26 20,3 C 83 % 1009,7 hPa 0,0 l/m 0 min 0 min 0,000 mm 0,0 UV-I 0 W/m 17,3 C 20,3 C 8,0 km/h (2 Bft) 98 %
18.06.2019 23:24 20,3 C 83 % 1009,8 hPa 0,0 l/m 0 min 0 min 0,000 mm 0,0 UV-I 0 W/m 17,3 C 20,3 C 8,0 km/h (2 Bft) 96 %
18.06.2019 23:22 20,4 C 83 % 1009,8 hPa 0,0 l/m 0 min 0 min 0,000 mm 0,0 UV-I 0 W/m 17,4 C 20,3 C 9,7 km/h (2 Bft) 100 %
18.06.2019 23:20 20,4 C 83 % 1009,8 hPa 0,0 l/m 0 min 0 min 0,000 mm 0,0 UV-I 0 W/m 17,4 C 20,4 C 8,0 km/h (2 Bft) 96 %
18.06.2019 23:18 20,4 C 82 % 1009,8 hPa 0,0 l/m 0 min 0 min 0,000 mm 0,0 UV-I 0 W/m 17,2 C 20,4 C 6,4 km/h (2 Bft) 94 %
18.06.2019 23:16 20,4 C 82 % 1009,8 hPa 0,0 l/m 0 min 0 min 0,000 mm 0,0 UV-I 0 W/m 17,2 C 20,4 C 8,0 km/h (2 Bft) 94 %
18.06.2019 23:14 20,5 C 82 % 1009,8 hPa 0,0 l/m 0 min 0 min 0,000 mm 0,0 UV-I 0 W/m 17,3 C 20,5 C 8,0 km/h (2 Bft) 98 %
18.06.2019 23:12 20,5 C 82 % 1009,8 hPa 0,0 l/m 0 min 0 min 0,000 mm 0,0 UV-I 0 W/m 17,3 C 20,5 C 8,0 km/h (2 Bft) 96 %
18.06.2019 23:10 20,6 C 82 % 1009,9 hPa 0,0 l/m 0 min 0 min 0,000 mm 0,0 UV-I 0 W/m 17,4 C 20,6 C 8,0 km/h (2 Bft) 98 %
18.06.2019 23:08 20,6 C 82 % 1009,8 hPa 0,0 l/m 0 min 0 min 0,000 mm 0,0 UV-I 0 W/m 17,4 C 20,6 C 8,0 km/h (2 Bft) 98 %
18.06.2019 23:06 20,7 C 81 % 1009,9 hPa 0,0 l/m 0 min 0 min 0,000 mm 0,0 UV-I 0 W/m 17,3 C 20,7 C 8,0 km/h (2 Bft) 98 %
18.06.2019 23:04 20,7 C 81 % 1009,9 hPa 0,0 l/m 0 min 0 min 0,026 mm 0,0 UV-I 0 W/m 17,3 C 20,7 C 9,7 km/h (2 Bft) 95 %
18.06.2019 23:00 20,9 C 81 % 1009,9 hPa 0,0 l/m 0 min 0 min 0,000 mm 0,0 UV-I 0 W/m 17,5 C 20,9 C 8,0 km/h (2 Bft) 98 %
18.06.2019 22:58 21,0 C 81 % 1009,9 hPa 0,0 l/m 0 min 0 min 0,000 mm 0,0 UV-I 0 W/m 17,6 C 21,0 C 6,4 km/h (2 Bft) 98 %
18.06.2019 22:56 21,1 C 81 % 1009,9 hPa 0,0 l/m 0 min 0 min 0,000 mm 0,0 UV-I 0 W/m 17,7 C 21,1 C 8,0 km/h (2 Bft) 94 %
18.06.2019 22:54 21,1 C 81 % 1009,9 hPa 0,0 l/m 0 min 0 min 0,000 mm 0,0 UV-I 0 W/m 17,7 C 21,1 C 6,4 km/h (2 Bft) 98 %
18.06.2019 22:52 21,1 C 80 % 1009,9 hPa 0,0 l/m 0 min 0 min 0,000 mm 0,0 UV-I 0 W/m 17,5 C 21,1 C 8,0 km/h (2 Bft) 98 %
18.06.2019 22:50 21,2 C 80 % 1009,9 hPa 0,0 l/m 0 min 0 min 0,000 mm 0,0 UV-I 0 W/m 17,6 C 21,2 C 8,0 km/h (2 Bft) 96 %
18.06.2019 22:48 21,2 C 80 % 1009,9 hPa 0,0 l/m 0 min 0 min 0,000 mm 0,0 UV-I 0 W/m 17,6 C 21,2 C 8,0 km/h (2 Bft) 100 %
18.06.2019 22:46 21,3 C 80 % 1009,9 hPa 0,0 l/m 0 min 0 min 0,000 mm 0,0 UV-I 0 W/m 17,7 C 21,3 C 6,4 km/h (2 Bft) 100 %
18.06.2019 22:44 21,3 C 80 % 1010,0 hPa 0,0 l/m 0 min 0 min 0,000 mm 0,0 UV-I 0 W/m 17,7 C 21,3 C 8,0 km/h (2 Bft) 100 %
18.06.2019 22:42 21,3 C 80 % 1010,0 hPa 0,0 l/m 0 min 0 min 0,000 mm 0,0 UV-I 0 W/m 17,7 C 21,3 C 6,4 km/h (2 Bft) 98 %
18.06.2019 22:40 21,3 C 80 % 1010,0 hPa 0,0 l/m 0 min 0 min 0,000 mm 0,0 UV-I 0 W/m 17,7 C 21,3 C 6,4 km/h (2 Bft) 98 %
18.06.2019 22:38 21,3 C 80 % 1009,9 hPa 0,0 l/m 0 min 0 min 0,000 mm 0,0 UV-I 0 W/m 17,7 C 21,3 C 6,4 km/h (2 Bft) 100 %
18.06.2019 22:36 21,3 C 80 % 1009,9 hPa 0,0 l/m 0 min 0 min 0,000 mm 0,0 UV-I 0 W/m 17,7 C 21,3 C 3,2 km/h (1 Bft) 98 %
18.06.2019 22:34 21,4 C 80 % 1009,9 hPa 0,0 l/m 0 min 0 min 0,000 mm 0,0 UV-I 0 W/m 17,8 C 21,4 C 6,4 km/h (2 Bft) 100 %
18.06.2019 22:32 21,4 C 80 % 1010,0 hPa 0,0 l/m 0 min 0 min 0,000 mm 0,0 UV-I 0 W/m 17,8 C 21,4 C 6,4 km/h (2 Bft) 100 %
18.06.2019 22:30 21,5 C 80 % 1010,0 hPa 0,0 l/m 0 min 0 min 0,000 mm 0,0 UV-I 0 W/m 17,9 C 21,5 C 6,4 km/h (2 Bft) 98 %
18.06.2019 22:28 21,6 C 79 % 1010,0 hPa 0,0 l/m 0 min 0 min 0,000 mm 0,0 UV-I 0 W/m 17,8 C 21,6 C 6,4 km/h (2 Bft) 98 %
18.06.2019 22:26 21,7 C 79 % 1010,0 hPa 0,0 l/m 0 min 0 min 0,000 mm 0,0 UV-I 0 W/m 17,9 C 21,7 C 8,0 km/h (2 Bft) 98 %
18.06.2019 22:24 21,7 C 79 % 1010,1 hPa 0,0 l/m 0 min 0 min 0,000 mm 0,0 UV-I 0 W/m 17,9 C 21,7 C 6,4 km/h (2 Bft) 94 %
18.06.2019 22:22 21,8 C 79 % 1010,1 hPa 0,0 l/m 0 min 0 min 0,000 mm 0,0 UV-I 0 W/m 18,0 C 21,8 C 8,0 km/h (2 Bft) 98 %
18.06.2019 22:20 21,9 C 79 % 1010,2 hPa 0,0 l/m 0 min 0 min 0,000 mm 0,0 UV-I 0 W/m 18,1 C 21,9 C 6,4 km/h (2 Bft) 98 %
18.06.2019 22:18 22,0 C 78 % 1010,1 hPa 0,0 l/m 0 min 0 min 0,000 mm 0,0 UV-I 0 W/m 18,0 C 22,0 C 4,8 km/h (1 Bft) 96 %
18.06.2019 22:16 22,1 C 78 % 1010,2 hPa 0,0 l/m 0 min 0 min 0,000 mm 0,0 UV-I 0 W/m 18,1 C 22,1 C 6,4 km/h (2 Bft) 98 %
18.06.2019 22:14 22,2 C 78 % 1010,2 hPa 0,0 l/m 0 min 0 min 0,000 mm 0,0 UV-I 0 W/m 18,2 C 22,2 C 6,4 km/h (2 Bft) 98 %
18.06.2019 22:12 22,3 C 77 % 1010,2 hPa 0,0 l/m 0 min 0 min 0,000 mm 0,0 UV-I 0 W/m 18,1 C 22,3 C 6,4 km/h (2 Bft) 97 %
18.06.2019 22:10 22,4 C 76 % 1010,1 hPa 0,0 l/m 0 min 0 min 0,000 mm 0,0 UV-I 0 W/m 18,0 C 22,4 C 6,4 km/h (2 Bft) 98 %
18.06.2019 22:08 22,5 C 76 % 1010,1 hPa 0,0 l/m 0 min 0 min 0,000 mm 0,0 UV-I 0 W/m 18,0 C 22,5 C 6,4 km/h (2 Bft) 98 %
18.06.2019 22:06 22,6 C 76 % 1010,1 hPa 0,0 l/m 0 min 0 min 0,000 mm 0,0 UV-I 0 W/m 18,1 C 22,6 C 6,4 km/h (2 Bft) 98 %
18.06.2019 22:04 22,7 C 75 % 1010,1 hPa 0,0 l/m 0 min 0 min 0,050 mm 0,0 UV-I 0 W/m 18,0 C 22,7 C 6,4 km/h (2 Bft) 100 %
18.06.2019 22:00 22,9 C 75 % 1010,1 hPa 0,0 l/m 0 min 0 min 0,000 mm 0,0 UV-I 1 W/m 18,2 C 22,9 C 6,4 km/h (2 Bft) 100 %
18.06.2019 21:58 23,0 C 75 % 1010,1 hPa 0,0 l/m 0 min 0 min 0,000 mm 0,0 UV-I 2 W/m 18,3 C 23,0 C 4,8 km/h (1 Bft) 98 %
18.06.2019 21:56 23,1 C 74 % 1010,1 hPa 0,0 l/m 0 min 0 min 0,000 mm 0,0 UV-I 3 W/m 18,2 C 23,1 C 6,4 km/h (2 Bft) 98 %
18.06.2019 21:54 23,2 C 74 % 1010,0 hPa 0,0 l/m 0 min 0 min 0,000 mm 0,0 UV-I 4 W/m 18,3 C 23,2 C 4,8 km/h (1 Bft) 100 %
18.06.2019 21:52 23,3 C 73 % 1010,1 hPa 0,0 l/m 0 min 0 min 0,000 mm 0,0 UV-I 6 W/m 18,2 C 23,3 C 4,8 km/h (1 Bft) 98 %
18.06.2019 21:50 23,4 C 73 % 1010,0 hPa 0,0 l/m 0 min 0 min 0,000 mm 0,0 UV-I 7 W/m 18,3 C 23,4 C 3,2 km/h (1 Bft) 96 %
18.06.2019 21:48 23,6 C 73 % 1010,0 hPa 0,0 l/m 0 min 0 min 0,000 mm 0,0 UV-I 9 W/m 18,5 C 23,6 C 3,2 km/h (1 Bft) 100 %
18.06.2019 21:46 23,7 C 72 % 1010,0 hPa 0,0 l/m 0 min 0 min 0,000 mm 0,0 UV-I 11 W/m 18,3 C 23,7 C 3,2 km/h (1 Bft) 100 %
18.06.2019 21:44 23,8 C 72 % 1010,0 hPa 0,0 l/m 0 min 0 min 0,000 mm 0,0 UV-I 11 W/m 18,4 C 23,8 C 3,2 km/h (1 Bft) 100 %
18.06.2019 21:42 23,9 C 72 % 1010,0 hPa 0,0 l/m 0 min 0 min 0,000 mm 0,0 UV-I 12 W/m 18,5 C 23,9 C 3,2 km/h (1 Bft) 98 %
18.06.2019 21:40 24,1 C 72 % 1010,0 hPa 0,0 l/m 0 min 0 min 0,000 mm 0,0 UV-I 13 W/m 18,7 C 24,1 C 3,2 km/h (1 Bft) 98 %
18.06.2019 21:38 24,2 C 71 % 1010,0 hPa 0,0 l/m 0 min 0 min 0,000 mm 0,0 UV-I 14 W/m 18,6 C 24,2 C 3,2 km/h (1 Bft) 100 %
18.06.2019 21:36 24,3 C 71 % 1010,0 hPa 0,0 l/m 0 min 0 min 0,000 mm 0,0 UV-I 16 W/m 18,7 C 24,3 C 3,2 km/h (1 Bft) 100 %
18.06.2019 21:34 24,5 C 71 % 1010,0 hPa 0,0 l/m 0 min 0 min 0,000 mm 0,0 UV-I 18 W/m 18,9 C 24,5 C 3,2 km/h (1 Bft) 100 %
18.06.2019 21:32 24,7 C 70 % 1010,0 hPa 0,0 l/m 0 min 0 min 0,000 mm 0,0 UV-I 18 W/m 18,8 C 24,7 C 4,8 km/h (1 Bft) 100 %
18.06.2019 21:30 24,8 C 70 % 1010,0 hPa 0,0 l/m 0 min 0 min 0,000 mm 0,0 UV-I 20 W/m 18,9 C 24,8 C 4,8 km/h (1 Bft) 95 %
18.06.2019 21:28 25,0 C 69 % 1010,0 hPa 0,0 l/m 0 min 0 min 0,000 mm 0,0 UV-I 21 W/m 18,9 C 25,0 C 3,2 km/h (1 Bft) 100 %
18.06.2019 21:26 25,2 C 69 % 1010,0 hPa 0,0 l/m 0 min 0 min 0,000 mm 0,0 UV-I 23 W/m 19,1 C 25,2 C 3,2 km/h (1 Bft) 96 %
18.06.2019 21:24 25,3 C 69 % 1009,9 hPa 0,0 l/m 0 min 0 min 0,000 mm 0,0 UV-I 24 W/m 19,2 C 25,3 C 3,2 km/h (1 Bft) 98 %
18.06.2019 21:22 25,3 C 68 % 1009,9 hPa 0,0 l/m 0 min 0 min 0,000 mm 0,0 UV-I 25 W/m 19,0 C 25,3 C 3,2 km/h (1 Bft) 96 %
18.06.2019 21:20 25,4 C 68 % 1009,9 hPa 0,0 l/m 0 min 0 min 0,000 mm 0,0 UV-I 27 W/m 19,1 C 25,4 C 3,2 km/h (1 Bft) 96 %
18.06.2019 21:18 25,5 C 67 % 1009,9 hPa 0,0 l/m 0 min 0 min 0,000 mm 0,0 UV-I 28 W/m 18,9 C 25,5 C 4,8 km/h (1 Bft) 97 %
18.06.2019 21:16 25,6 C 67 % 1009,9 hPa 0,0 l/m 0 min 0 min 0,000 mm 0,0 UV-I 30 W/m 19,0 C 25,6 C 4,8 km/h (1 Bft) 98 %
18.06.2019 21:14 25,6 C 67 % 1009,9 hPa 0,0 l/m 0 min 0 min 0,000 mm 0,0 UV-I 32 W/m 19,0 C 25,6 C 4,8 km/h (1 Bft) 98 %
18.06.2019 21:12 25,7 C 67 % 1009,9 hPa 0,0 l/m 0 min 0 min 0,000 mm 0,0 UV-I 34 W/m 19,1 C 25,7 C 3,2 km/h (1 Bft) 96 %
18.06.2019 21:10 25,8 C 66 % 1009,9 hPa 0,0 l/m 0 min 0 min 0,000 mm 0,0 UV-I 37 W/m 19,0 C 25,8 C 4,8 km/h (1 Bft) 98 %
18.06.2019 21:08 25,8 C 66 % 1009,9 hPa 0,0 l/m 0 min 0 min 0,000 mm 0,0 UV-I 40 W/m 19,0 C 25,8 C 4,8 km/h (1 Bft) 93 %
18.06.2019 21:06 25,9 C 66 % 1009,9 hPa 0,0 l/m 0 min 0 min 0,000 mm 0,0 UV-I 42 W/m 19,0 C 25,9 C 4,8 km/h (1 Bft) 98 %
18.06.2019 21:04 25,9 C 66 % 1009,9 hPa 0,0 l/m 0 min 0 min 0,102 mm 0,5 UV-I 47 W/m 19,0 C 25,9 C 4,8 km/h (1 Bft) 92 %
18.06.2019 21:00 26,1 C 65 % 1009,9 hPa 0,0 l/m 0 min 0 min 0,000 mm 0,5 UV-I 49 W/m 19,0 C 26,1 C 3,2 km/h (1 Bft) 90 %
18.06.2019 20:58 26,2 C 65 % 1009,8 hPa 0,0 l/m 0 min 0 min 0,000 mm 0,5 UV-I 49 W/m 19,1 C 26,2 C 3,2 km/h (1 Bft) 96 %
18.06.2019 20:56 26,3 C 65 % 1009,8 hPa 0,0 l/m 0 min 0 min 0,000 mm 0,5 UV-I 56 W/m 19,2 C 26,3 C 4,8 km/h (1 Bft) 96 %
18.06.2019 20:54 26,3 C 65 % 1009,8 hPa 0,0 l/m 0 min 0 min 0,000 mm 0,5 UV-I 60 W/m 19,2 C 26,3 C 4,8 km/h (1 Bft) 92 %
18.06.2019 20:52 26,4 C 65 % 1009,8 hPa 0,0 l/m 0 min 0 min 0,000 mm 0,5 UV-I 64 W/m 19,3 C 26,4 C 4,8 km/h (1 Bft) 96 %
18.06.2019 20:50 26,4 C 64 % 1009,9 hPa 0,0 l/m 0 min 0 min 0,000 mm 0,5 UV-I 69 W/m 19,0 C 26,4 C 3,2 km/h (1 Bft) 98 %
18.06.2019 20:48 26,5 C 64 % 1009,8 hPa 0,0 l/m 0 min 0 min 0,000 mm 0,6 UV-I 72 W/m 19,1 C 26,5 C 4,8 km/h (1 Bft) 98 %
18.06.2019 20:46 26,6 C 64 % 1009,8 hPa 0,0 l/m 0 min 0 min 0,000 mm 0,6 UV-I 78 W/m 19,2 C 26,6 C 6,4 km/h (2 Bft) 92 %
18.06.2019 20:44 26,7 C 64 % 1009,8 hPa 0,0 l/m 0 min 0 min 0,000 mm 0,6 UV-I 81 W/m 19,3 C 26,7 C 6,4 km/h (2 Bft) 96 %
18.06.2019 20:42 26,7 C 64 % 1009,8 hPa 0,0 l/m 0 min 0 min 0,000 mm 0,6 UV-I 85 W/m 19,3 C 26,7 C 6,4 km/h (2 Bft) 98 %
18.06.2019 20:40 26,7 C 64 % 1009,8 hPa 0,0 l/m 0 min 0 min 0,000 mm 0,6 UV-I 89 W/m 19,3 C 26,7 C 4,8 km/h (1 Bft) 98 %
18.06.2019 20:38 26,8 C 64 % 1009,8 hPa 0,0 l/m 0 min 0 min 0,000 mm 0,6 UV-I 93 W/m 19,4 C 26,8 C 4,8 km/h (1 Bft) 100 %
18.06.2019 20:36 26,8 C 64 % 1009,8 hPa 0,0 l/m 0 min 0 min 0,000 mm 0,6 UV-I 95 W/m 19,4 C 26,8 C 6,4 km/h (2 Bft) 100 %
18.06.2019 20:34 26,8 C 63 % 1009,8 hPa 0,0 l/m 0 min 0 min 0,000 mm 0,6 UV-I 94 W/m 19,1 C 26,8 C 6,4 km/h (2 Bft) 100 %
18.06.2019 20:32 26,9 C 64 % 1009,8 hPa 0,0 l/m 0 min 0 min 0,000 mm 0,6 UV-I 98 W/m 19,5 C 26,9 C 6,4 km/h (2 Bft) 100 %
18.06.2019 20:30 26,9 C 64 % 1009,8 hPa 0,0 l/m 0 min 0 min 0,000 mm 0,6 UV-I 105 W/m 19,5 C 26,9 C 4,8 km/h (1 Bft) 100 %
18.06.2019 20:28 27,0 C 63 % 1009,8 hPa 0,0 l/m 2 min 0 min 0,000 mm 0,7 UV-I 112 W/m 19,3 C 27,0 C 6,4 km/h (2 Bft) 100 %
18.06.2019 20:26 27,0 C 63 % 1009,8 hPa 0,0 l/m 0 min 0 min 0,000 mm 0,7 UV-I 113 W/m 19,3 C 27,0 C 3,2 km/h (1 Bft) 98 %
18.06.2019 20:24 27,1 C 63 % 1009,8 hPa 0,0 l/m 0 min 0 min 0,000 mm 0,7 UV-I 108 W/m 19,4 C 27,1 C 6,4 km/h (2 Bft) 100 %
18.06.2019 20:22 27,1 C 63 % 1009,8 hPa 0,0 l/m 0 min 0 min 0,000 mm 0,7 UV-I 104 W/m 19,4 C 27,1 C 6,4 km/h (2 Bft) 96 %
18.06.2019 20:20 27,2 C 63 % 1009,8 hPa 0,0 l/m 0 min 0 min 0,000 mm 0,7 UV-I 110 W/m 19,5 C 27,2 C 6,4 km/h (2 Bft) 98 %
18.06.2019 20:18 27,2 C 63 % 1009,8 hPa 0,0 l/m 2 min 0 min 0,000 mm 0,7 UV-I 127 W/m 19,5 C 27,2 C 9,7 km/h (2 Bft) 98 %
18.06.2019 20:16 27,2 C 63 % 1009,8 hPa 0,0 l/m 2 min 0 min 0,000 mm 0,7 UV-I 134 W/m 19,5 C 27,2 C 6,4 km/h (2 Bft) 97 %
18.06.2019 20:14 27,3 C 63 % 1009,8 hPa 0,0 l/m 2 min 0 min 0,000 mm 0,7 UV-I 141 W/m 19,6 C 27,3 C 6,4 km/h (2 Bft) 96 %
18.06.2019 20:12 27,3 C 63 % 1009,8 hPa 0,0 l/m 2 min 0 min 0,000 mm 0,8 UV-I 145 W/m 19,6 C 27,3 C 6,4 km/h (2 Bft) 96 %
18.06.2019 20:10 27,3 C 63 % 1009,8 hPa 0,0 l/m 2 min 0 min 0,000 mm 0,8 UV-I 150 W/m 19,6 C 27,3 C 6,4 km/h (2 Bft) 98 %
18.06.2019 20:08 27,3 C 64 % 1009,9 hPa 0,0 l/m 2 min 0 min 0,000 mm 0,8 UV-I 156 W/m 19,9 C 27,3 C 8,0 km/h (2 Bft) 98 %
18.06.2019 20:06 27,3 C 63 % 1009,8 hPa 0,0 l/m 2 min 0 min 0,000 mm 0,8 UV-I 162 W/m 19,6 C 27,3 C 6,4 km/h (2 Bft) 97 %
18.06.2019 20:04 27,3 C 63 % 1009,8 hPa 0,0 l/m 2 min 0 min 0,203 mm 0,8 UV-I 158 W/m 19,6 C 27,3 C 6,4 km/h (2 Bft) 98 %
18.06.2019 20:00 27,3 C 63 % 1009,8 hPa 0,0 l/m 0 min 0 min 0,000 mm 0,8 UV-I 140 W/m 19,6 C 27,3 C 6,4 km/h (2 Bft) 98 %
18.06.2019 19:58 27,3 C 63 % 1009,8 hPa 0,0 l/m 0 min 0 min 0,000 mm 0,9 UV-I 149 W/m 19,6 C 27,3 C 4,8 km/h (1 Bft) 98 %
18.06.2019 19:56 27,3 C 62 % 1009,9 hPa 0,0 l/m 0 min 0 min 0,000 mm 0,9 UV-I 140 W/m 19,4 C 27,3 C 4,8 km/h (1 Bft) 98 %
18.06.2019 19:54 27,3 C 62 % 1009,8 hPa 0,0 l/m 0 min 0 min 0,000 mm 0,9 UV-I 138 W/m 19,4 C 27,3 C 8,0 km/h (2 Bft) 98 %
18.06.2019 19:52 27,4 C 62 % 1009,9 hPa 0,0 l/m 2 min 0 min 0,000 mm 0,9 UV-I 184 W/m 19,5 C 27,4 C 11,3 km/h (2 Bft) 98 %
18.06.2019 19:50 27,4 C 63 % 1009,9 hPa 0,0 l/m 2 min 0 min 0,000 mm 0,9 UV-I 214 W/m 19,7 C 27,4 C 8,0 km/h (2 Bft) 96 %
18.06.2019 19:48 27,4 C 62 % 1009,9 hPa 0,0 l/m 2 min 0 min 0,000 mm 0,9 UV-I 214 W/m 19,5 C 27,4 C 8,0 km/h (2 Bft) 98 %
18.06.2019 19:46 27,4 C 62 % 1009,9 hPa 0,0 l/m 2 min 0 min 0,000 mm 1,0 UV-I 191 W/m 19,5 C 27,4 C 8,0 km/h (2 Bft) 96 %
18.06.2019 19:44 27,4 C 62 % 1009,9 hPa 0,0 l/m 2 min 0 min 0,000 mm 1,0 UV-I 226 W/m 19,5 C 27,4 C 9,7 km/h (2 Bft) 94 %
18.06.2019 19:42 27,4 C 62 % 1009,9 hPa 0,0 l/m 2 min 0 min 0,000 mm 1,0 UV-I 246 W/m 19,5 C 27,4 C 8,0 km/h (2 Bft) 94 %
18.06.2019 19:40 27,5 C 62 % 1010,0 hPa 0,0 l/m 2 min 0 min 0,000 mm 1,0 UV-I 254 W/m 19,6 C 27,5 C 8,0 km/h (2 Bft) 95 %
18.06.2019 19:38 27,5 C 62 % 1010,0 hPa 0,0 l/m 2 min 0 min 0,000 mm 1,0 UV-I 251 W/m 19,6 C 27,5 C 11,3 km/h (2 Bft) 96 %
18.06.2019 19:36 27,6 C 62 % 1010,0 hPa 0,0 l/m 2 min 0 min 0,000 mm 1,1 UV-I 264 W/m 19,6 C 27,6 C 8,0 km/h (2 Bft) 90 %
18.06.2019 19:34 27,6 C 62 % 1010,1 hPa 0,0 l/m 2 min 0 min 0,000 mm 1,1 UV-I 269 W/m 19,6 C 27,6 C 9,7 km/h (2 Bft) 94 %
18.06.2019 19:32 27,6 C 62 % 1010,0 hPa 0,0 l/m 2 min 0 min 0,000 mm 1,1 UV-I 265 W/m 19,6 C 27,4 C 12,9 km/h (3 Bft) 90 %
18.06.2019 19:30 27,6 C 62 % 1010,1 hPa 0,0 l/m 2 min 0 min 0,000 mm 1,1 UV-I 236 W/m 19,6 C 27,6 C 11,3 km/h (2 Bft) 94 %
18.06.2019 19:28 27,6 C 62 % 1010,1 hPa 0,0 l/m 2 min 0 min 0,000 mm 1,1 UV-I 234 W/m 19,6 C 27,6 C 6,4 km/h (2 Bft) 94 %
18.06.2019 19:26 27,6 C 62 % 1010,1 hPa 0,0 l/m 2 min 0 min 0,000 mm 1,1 UV-I 268 W/m 19,6 C 27,6 C 8,0 km/h (2 Bft) 91 %
18.06.2019 19:24 27,6 C 62 % 1010,1 hPa 0,0 l/m 2 min 0 min 0,000 mm 1,2 UV-I 223 W/m 19,6 C 27,6 C 8,0 km/h (2 Bft) 94 %
18.06.2019 19:22 27,6 C 62 % 1010,2 hPa 0,0 l/m 2 min 0 min 0,000 mm 1,2 UV-I 251 W/m 19,6 C 27,6 C 9,7 km/h (2 Bft) 95 %
18.06.2019 19:20 27,7 C 62 % 1010,1 hPa 0,0 l/m 2 min 0 min 0,000 mm 1,2 UV-I 242 W/m 19,7 C 27,5 C 12,9 km/h (3 Bft) 91 %
18.06.2019 19:18 27,7 C 61 % 1010,1 hPa 0,0 l/m 2 min 0 min 0,000 mm 1,3 UV-I 265 W/m 19,5 C 27,5 C 12,9 km/h (3 Bft) 98 %
18.06.2019 19:16 27,6 C 62 % 1010,1 hPa 0,0 l/m 2 min 0 min 0,000 mm 1,3 UV-I 302 W/m 19,6 C 27,6 C 9,7 km/h (2 Bft) 96 %
18.06.2019 19:14 27,6 C 62 % 1010,1 hPa 0,0 l/m 2 min 0 min 0,000 mm 1,3 UV-I 325 W/m 19,6 C 27,4 C 12,9 km/h (3 Bft) 94 %
18.06.2019 19:12 27,6 C 62 % 1010,1 hPa 0,0 l/m 2 min 0 min 0,000 mm 1,4 UV-I 331 W/m 19,6 C 27,5 C 14,5 km/h (3 Bft) 98 %
18.06.2019 19:10 27,6 C 62 % 1010,1 hPa 0,0 l/m 2 min 0 min 0,000 mm 1,4 UV-I 354 W/m 19,6 C 27,3 C 17,7 km/h (3 Bft) 91 %
18.06.2019 19:08 27,6 C 62 % 1010,1 hPa 0,0 l/m 2 min 0 min 0,000 mm 1,5 UV-I 367 W/m 19,6 C 27,4 C 12,9 km/h (3 Bft) 94 %
18.06.2019 19:06 27,6 C 63 % 1010,1 hPa 0,0 l/m 2 min 0 min 0,000 mm 1,5 UV-I 383 W/m 19,9 C 27,4 C 12,9 km/h (3 Bft) 98 %
18.06.2019 19:04 27,6 C 64 % 1010,1 hPa 0,0 l/m 2 min 0 min 0,254 mm 1,6 UV-I 408 W/m 20,2 C 27,5 C 11,3 km/h (2 Bft) 96 %
18.06.2019 19:00 27,4 C 63 % 1010,1 hPa 0,0 l/m 2 min 0 min 0,000 mm 1,7 UV-I 442 W/m 19,7 C 27,2 C 12,9 km/h (3 Bft) 100 %
18.06.2019 18:58 27,3 C 64 % 1010,1 hPa 0,0 l/m 2 min 0 min 0,000 mm 1,7 UV-I 462 W/m 19,9 C 26,9 C 14,5 km/h (3 Bft) 100 %
18.06.2019 18:56 27,2 C 65 % 1010,1 hPa 0,0 l/m 2 min 0 min 0,000 mm 1,7 UV-I 484 W/m 20,0 C 27,1 C 14,5 km/h (3 Bft) 100 %
18.06.2019 18:54 27,1 C 65 % 1010,2 hPa 0,0 l/m 2 min 0 min 0,000 mm 1,8 UV-I 503 W/m 19,9 C 26,8 C 16,1 km/h (3 Bft) 96 %
18.06.2019 18:52 26,9 C 66 % 1010,2 hPa 0,0 l/m 2 min 0 min 0,000 mm 1,8 UV-I 520 W/m 20,0 C 26,9 C 12,9 km/h (3 Bft) 100 %
18.06.2019 18:50 26,8 C 66 % 1010,2 hPa 0,0 l/m 2 min 0 min 0,000 mm 1,8 UV-I 529 W/m 19,9 C 26,7 C 12,9 km/h (3 Bft) 100 %
18.06.2019 18:48 26,7 C 66 % 1010,2 hPa 0,0 l/m 2 min 0 min 0,000 mm 1,8 UV-I 513 W/m 19,8 C 26,7 C 9,7 km/h (2 Bft) 98 %
18.06.2019 18:46 26,6 C 66 % 1010,2 hPa 0,0 l/m 2 min 0 min 0,000 mm 1,7 UV-I 419 W/m 19,7 C 26,6 C 8,0 km/h (2 Bft) 98 %
18.06.2019 18:44 26,6 C 66 % 1010,2 hPa 0,0 l/m 0 min 0 min 0,000 mm 1,5 UV-I 267 W/m 19,7 C 26,4 C 11,3 km/h (2 Bft) 97 %
18.06.2019 18:42 26,7 C 65 % 1010,2 hPa 0,0 l/m 0 min 0 min 0,000 mm 1,4 UV-I 216 W/m 19,6 C 26,7 C 12,9 km/h (3 Bft) 98 %
18.06.2019 18:40 26,7 C 65 % 1010,3 hPa 0,0 l/m 0 min 0 min 0,000 mm 1,4 UV-I 215 W/m 19,6 C 26,7 C 8,0 km/h (2 Bft) 98 %
18.06.2019 18:38 26,7 C 65 % 1010,3 hPa 0,0 l/m 0 min 0 min 0,000 mm 1,4 UV-I 180 W/m 19,6 C 26,7 C 6,4 km/h (2 Bft) 94 %
18.06.2019 18:36 26,8 C 64 % 1010,3 hPa 0,0 l/m 0 min 0 min 0,000 mm 1,4 UV-I 171 W/m 19,4 C 26,8 C 8,0 km/h (2 Bft) 100 %
18.06.2019 18:34 26,9 C 64 % 1010,3 hPa 0,0 l/m 0 min 0 min 0,000 mm 1,4 UV-I 169 W/m 19,5 C 26,9 C 9,7 km/h (2 Bft) 100 %
18.06.2019 18:32 26,9 C 64 % 1010,3 hPa 0,0 l/m 0 min 0 min 0,000 mm 1,4 UV-I 169 W/m 19,5 C 26,8 C 11,3 km/h (2 Bft) 100 %
18.06.2019 18:30 27,1 C 63 % 1010,3 hPa 0,0 l/m 0 min 0 min 0,000 mm 1,4 UV-I 171 W/m 19,4 C 26,9 C 12,9 km/h (3 Bft) 100 %
18.06.2019 18:28 27,2 C 64 % 1010,4 hPa 0,0 l/m 0 min 0 min 0,000 mm 1,5 UV-I 174 W/m 19,8 C 27,1 C 14,5 km/h (3 Bft) 100 %
18.06.2019 18:26 27,3 C 63 % 1010,4 hPa 0,0 l/m 0 min 0 min 0,000 mm 1,5 UV-I 181 W/m 19,6 C 27,3 C 6,4 km/h (2 Bft) 100 %
18.06.2019 18:24 27,3 C 63 % 1010,4 hPa 0,0 l/m 0 min 0 min 0,000 mm 1,6 UV-I 194 W/m 19,6 C 27,3 C 12,9 km/h (3 Bft) 97 %
18.06.2019 18:20 27,5 C 62 % 1010,4 hPa 0,0 l/m 0 min 0 min 0,000 mm 1,7 UV-I 211 W/m 19,6 C 27,3 C 12,9 km/h (3 Bft) 98 %
18.06.2019 18:18 27,6 C 62 % 1010,4 hPa 0,0 l/m 0 min 0 min 0,000 mm 1,7 UV-I 227 W/m 19,6 C 27,5 C 11,3 km/h (2 Bft) 98 %
18.06.2019 18:16 27,7 C 63 % 1010,4 hPa 0,0 l/m 0 min 0 min 0,000 mm 1,8 UV-I 251 W/m 20,0 C 27,5 C 12,9 km/h (3 Bft) 96 %
18.06.2019 18:14 27,7 C 63 % 1010,4 hPa 0,0 l/m 0 min 0 min 0,000 mm 1,9 UV-I 279 W/m 20,0 C 27,7 C 12,9 km/h (3 Bft) 97 %
18.06.2019 18:12 27,8 C 62 % 1010,4 hPa 0,0 l/m 0 min 0 min 0,000 mm 2,0 UV-I 294 W/m 19,8 C 27,8 C 11,3 km/h (2 Bft) 92 %
18.06.2019 18:10 27,8 C 62 % 1010,4 hPa 0,0 l/m 0 min 0 min 0,000 mm 2,0 UV-I 304 W/m 19,8 C 27,7 C 12,9 km/h (3 Bft) 98 %
18.06.2019 18:08 27,8 C 63 % 1010,3 hPa 0,0 l/m 0 min 0 min 0,000 mm 2,1 UV-I 293 W/m 20,1 C 27,5 C 14,5 km/h (3 Bft) 96 %
18.06.2019 18:06 27,8 C 63 % 1010,4 hPa 0,0 l/m 2 min 0 min 0,000 mm 2,2 UV-I 370 W/m 20,1 C 27,5 C 12,9 km/h (3 Bft) 97 %
18.06.2019 18:04 27,8 C 63 % 1010,4 hPa 0,0 l/m 2 min 0 min 0,381 mm 2,3 UV-I 392 W/m 20,1 C 27,7 C 14,5 km/h (3 Bft) 97 %
18.06.2019 18:00 27,8 C 62 % 1010,4 hPa 0,0 l/m 2 min 0 min 0,000 mm 2,4 UV-I 443 W/m 19,8 C 27,8 C 11,3 km/h (2 Bft) 96 %
18.06.2019 17:58 27,8 C 62 % 1010,4 hPa 0,0 l/m 2 min 0 min 0,000 mm 2,5 UV-I 448 W/m 19,8 C 27,3 C 16,1 km/h (3 Bft) 100 %
18.06.2019 17:56 27,8 C 62 % 1010,5 hPa 0,0 l/m 2 min 0 min 0,000 mm 2,4 UV-I 405 W/m 19,8 C 27,3 C 17,7 km/h (3 Bft) 94 %
18.06.2019 17:54 27,8 C 62 % 1010,5 hPa 0,0 l/m 2 min 0 min 0,000 mm 2,4 UV-I 380 W/m 19,8 C 27,4 C 14,5 km/h (3 Bft) 100 %
18.06.2019 17:52 27,8 C 62 % 1010,5 hPa 0,0 l/m 2 min 0 min 0,000 mm 2,4 UV-I 363 W/m 19,8 C 27,2 C 14,5 km/h (3 Bft) 100 %
18.06.2019 17:50 27,8 C 62 % 1010,5 hPa 0,0 l/m 2 min 0 min 0,000 mm 2,5 UV-I 373 W/m 19,8 C 27,5 C 14,5 km/h (3 Bft) 98 %
18.06.2019 17:48 27,9 C 62 % 1010,5 hPa 0,0 l/m 2 min 0 min 0,000 mm 2,5 UV-I 404 W/m 19,9 C 27,5 C 14,5 km/h (3 Bft) 100 %
18.06.2019 17:46 27,9 C 63 % 1010,4 hPa 0,0 l/m 2 min 0 min 0,000 mm 2,6 UV-I 402 W/m 20,2 C 27,4 C 17,7 km/h (3 Bft) 96 %
18.06.2019 17:44 27,9 C 63 % 1010,5 hPa 0,0 l/m 2 min 0 min 0,000 mm 2,7 UV-I 419 W/m 20,2 C 27,8 C 12,9 km/h (3 Bft) 100 %
18.06.2019 17:42 27,9 C 62 % 1010,5 hPa 0,0 l/m 2 min 0 min 0,000 mm 2,8 UV-I 451 W/m 19,9 C 27,6 C 14,5 km/h (3 Bft) 100 %
18.06.2019 17:40 27,9 C 63 % 1010,4 hPa 0,0 l/m 2 min 0 min 0,000 mm 2,8 UV-I 451 W/m 20,2 C 27,6 C 14,5 km/h (3 Bft) 97 %
18.06.2019 17:38 27,9 C 63 % 1010,5 hPa 0,0 l/m 2 min 0 min 0,000 mm 2,9 UV-I 452 W/m 20,2 C 27,3 C 16,1 km/h (3 Bft) 100 %
18.06.2019 17:36 27,8 C 63 % 1010,5 hPa 0,0 l/m 2 min 0 min 0,000 mm 2,9 UV-I 462 W/m 20,1 C 27,4 C 14,5 km/h (3 Bft) 96 %
18.06.2019 17:34 27,8 C 64 % 1010,5 hPa 0,0 l/m 2 min 0 min 0,000 mm 2,9 UV-I 451 W/m 20,3 C 27,4 C 19,3 km/h (3 Bft) 98 %
18.06.2019 17:32 27,8 C 64 % 1010,5 hPa 0,0 l/m 2 min 0 min 0,000 mm 3,1 UV-I 522 W/m 20,3 C 27,6 C 12,9 km/h (3 Bft) 97 %
18.06.2019 17:30 27,7 C 63 % 1010,5 hPa 0,0 l/m 2 min 0 min 0,000 mm 3,1 UV-I 512 W/m 20,0 C 27,2 C 16,1 km/h (3 Bft) 96 %
18.06.2019 17:28 27,7 C 63 % 1010,6 hPa 0,0 l/m 2 min 0 min 0,000 mm 3,1 UV-I 487 W/m 20,0 C 27,1 C 17,7 km/h (3 Bft) 98 %
18.06.2019 17:26 27,7 C 63 % 1010,6 hPa 0,0 l/m 2 min 0 min 0,000 mm 3,0 UV-I 460 W/m 20,0 C 27,4 C 14,5 km/h (3 Bft) 98 %
18.06.2019 17:24 27,6 C 63 % 1010,6 hPa 0,0 l/m 2 min 0 min 0,000 mm 3,2 UV-I 513 W/m 19,9 C 26,7 C 17,7 km/h (3 Bft) 98 %
18.06.2019 17:22 27,6 C 64 % 1010,6 hPa 0,0 l/m 2 min 0 min 0,000 mm 3,2 UV-I 528 W/m 20,2 C 27,1 C 20,9 km/h (4 Bft) 97 %
18.06.2019 17:20 27,6 C 63 % 1010,6 hPa 0,0 l/m 2 min 0 min 0,000 mm 3,2 UV-I 522 W/m 19,9 C 27,1 C 17,7 km/h (3 Bft) 98 %
18.06.2019 17:18 27,5 C 63 % 1010,7 hPa 0,0 l/m 2 min 0 min 0,000 mm 3,2 UV-I 495 W/m 19,8 C 26,8 C 16,1 km/h (3 Bft) 96 %
18.06.2019 17:16 27,4 C 64 % 1010,7 hPa 0,0 l/m 2 min 0 min 0,000 mm 3,3 UV-I 501 W/m 20,0 C 27,2 C 12,9 km/h (3 Bft) 98 %
18.06.2019 17:14 27,3 C 64 % 1010,7 hPa 0,0 l/m 2 min 0 min 0,000 mm 3,5 UV-I 556 W/m 19,9 C 26,4 C 17,7 km/h (3 Bft) 96 %
18.06.2019 17:12 27,3 C 63 % 1010,8 hPa 0,0 l/m 2 min 0 min 0,000 mm 3,5 UV-I 559 W/m 19,6 C 26,7 C 19,3 km/h (3 Bft) 97 %
18.06.2019 17:10 27,2 C 64 % 1010,8 hPa 0,0 l/m 2 min 0 min 0,000 mm 3,4 UV-I 544 W/m 19,8 C 26,2 C 22,5 km/h (4 Bft) 96 %
18.06.2019 17:08 27,2 C 64 % 1010,8 hPa 0,0 l/m 2 min 0 min 0,000 mm 3,4 UV-I 532 W/m 19,8 C 26,6 C 14,5 km/h (3 Bft) 98 %
18.06.2019 17:06 27,1 C 65 % 1010,7 hPa 0,0 l/m 2 min 0 min 0,000 mm 3,3 UV-I 501 W/m 19,9 C 26,3 C 17,7 km/h (3 Bft) 96 %
18.06.2019 17:04 26,9 C 66 % 1010,8 hPa 0,0 l/m 2 min 0 min 0,254 mm 3,3 UV-I 490 W/m 20,0 C 26,7 C 16,1 km/h (3 Bft) 98 %
18.06.2019 17:00 26,8 C 65 % 1010,8 hPa 0,0 l/m 2 min 0 min 0,000 mm 3,3 UV-I 492 W/m 19,7 C 26,0 C 17,7 km/h (3 Bft) 100 %
18.06.2019 16:58 26,8 C 65 % 1010,7 hPa 0,0 l/m 0 min 0 min 0,000 mm 3,1 UV-I 413 W/m 19,7 C 26,2 C 19,3 km/h (3 Bft) 98 %
18.06.2019 16:56 26,7 C 65 % 1010,8 hPa 0,0 l/m 0 min 0 min 0,000 mm 3,1 UV-I 395 W/m 19,6 C 26,2 C 16,1 km/h (3 Bft) 98 %
18.06.2019 16:54 26,7 C 65 % 1010,8 hPa 0,0 l/m 2 min 0 min 0,000 mm 3,2 UV-I 437 W/m 19,6 C 26,3 C 16,1 km/h (3 Bft) 98 %
18.06.2019 16:52 26,7 C 64 % 1010,8 hPa 0,0 l/m 0 min 0 min 0,000 mm 2,8 UV-I 344 W/m 19,3 C 26,2 C 17,7 km/h (3 Bft) 98 %
18.06.2019 16:50 26,8 C 64 % 1010,7 hPa 0,0 l/m 0 min 0 min 0,000 mm 2,7 UV-I 320 W/m 19,4 C 26,2 C 19,3 km/h (3 Bft) 98 %
18.06.2019 16:48 26,8 C 64 % 1010,8 hPa 0,0 l/m 0 min 0 min 0,000 mm 2,7 UV-I 306 W/m 19,4 C 26,3 C 16,1 km/h (3 Bft) 98 %
18.06.2019 16:46 26,8 C 64 % 1010,8 hPa 0,0 l/m 0 min 0 min 0,000 mm 2,7 UV-I 312 W/m 19,4 C 26,4 C 16,1 km/h (3 Bft) 96 %
18.06.2019 16:44 26,8 C 64 % 1010,8 hPa 0,0 l/m 0 min 0 min 0,000 mm 2,7 UV-I 316 W/m 19,4 C 26,6 C 12,9 km/h (3 Bft) 100 %
18.06.2019 16:42 26,8 C 63 % 1010,9 hPa 0,0 l/m 0 min 0 min 0,000 mm 2,6 UV-I 306 W/m 19,1 C 26,6 C 12,9 km/h (3 Bft) 96 %
18.06.2019 16:40 26,9 C 62 % 1010,9 hPa 0,0 l/m 0 min 0 min 0,000 mm 2,5 UV-I 301 W/m 19,0 C 26,4 C 16,1 km/h (3 Bft) 93 %
18.06.2019 16:38 27,0 C 61 % 1010,9 hPa 0,0 l/m 0 min 0 min 0,000 mm 2,4 UV-I 293 W/m 18,8 C 25,7 C 24,1 km/h (4 Bft) 98 %
18.06.2019 16:36 27,1 C 62 % 1010,8 hPa 0,0 l/m 0 min 0 min 0,000 mm 2,3 UV-I 296 W/m 19,2 C 25,8 C 25,7 km/h (4 Bft) 98 %
18.06.2019 16:34 27,2 C 62 % 1010,9 hPa 0,0 l/m 0 min 0 min 0,000 mm 2,6 UV-I 318 W/m 19,3 C 26,1 C 17,7 km/h (3 Bft) 100 %
18.06.2019 16:32 27,2 C 63 % 1010,9 hPa 0,0 l/m 0 min 0 min 0,000 mm 2,7 UV-I 338 W/m 19,5 C 27,0 C 16,1 km/h (3 Bft) 98 %
18.06.2019 16:30 27,1 C 64 % 1010,9 hPa 0,0 l/m 0 min 0 min 0,000 mm 2,6 UV-I 314 W/m 19,7 C 27,1 C 6,4 km/h (2 Bft) 100 %
18.06.2019 16:28 27,0 C 63 % 1010,9 hPa 0,0 l/m 0 min 0 min 0,000 mm 2,6 UV-I 324 W/m 19,3 C 27,0 C 1,6 km/h (1 Bft) 98 %
18.06.2019 16:26 27,0 C 63 % 1010,8 hPa 0,0 l/m 0 min 0 min 0,000 mm 2,4 UV-I 300 W/m 19,3 C 27,0 C 4,8 km/h (1 Bft) 100 %
18.06.2019 16:24 27,1 C 65 % 1010,9 hPa 0,0 l/m 0 min 0 min 0,000 mm 2,3 UV-I 259 W/m 19,9 C 27,1 C 4,8 km/h (1 Bft) 100 %
18.06.2019 16:22 27,1 C 63 % 1010,9 hPa 0,0 l/m 0 min 0 min 0,000 mm 2,4 UV-I 260 W/m 19,4 C 27,1 C 4,8 km/h (1 Bft) 100 %
18.06.2019 16:20 27,1 C 63 % 1010,9 hPa 0,0 l/m 0 min 0 min 0,000 mm 2,5 UV-I 274 W/m 19,4 C 27,1 C 4,8 km/h (1 Bft) 98 %
18.06.2019 16:18 27,2 C 64 % 1010,9 hPa 0,0 l/m 0 min 0 min 0,000 mm 2,6 UV-I 284 W/m 19,8 C 27,2 C 4,8 km/h (1 Bft) 100 %
18.06.2019 16:16 27,2 C 65 % 1010,9 hPa 0,0 l/m 0 min 0 min 0,000 mm 2,7 UV-I 289 W/m 20,0 C 27,2 C 3,2 km/h (1 Bft) 100 %
18.06.2019 16:14 27,2 C 63 % 1010,9 hPa 0,0 l/m 0 min 0 min 0,000 mm 2,6 UV-I 282 W/m 19,5 C 27,2 C 4,8 km/h (1 Bft) 96 %
18.06.2019 16:12 27,2 C 63 % 1010,9 hPa 0,0 l/m 0 min 0 min 0,000 mm 2,6 UV-I 274 W/m 19,5 C 27,2 C 1,6 km/h (1 Bft) 95 %
18.06.2019 16:10 27,2 C 61 % 1010,9 hPa 0,0 l/m 0 min 0 min 0,000 mm 2,6 UV-I 274 W/m 19,0 C 27,2 C 1,6 km/h (1 Bft) 98 %
18.06.2019 16:08 27,2 C 64 % 1010,9 hPa 0,0 l/m 0 min 0 min 0,000 mm 2,7 UV-I 288 W/m 19,8 C 27,2 C 3,2 km/h (1 Bft) 98 %
18.06.2019 16:06 27,1 C 61 % 1010,9 hPa 0,0 l/m 0 min 0 min 0,000 mm 2,9 UV-I 304 W/m 18,9 C 27,1 C 1,6 km/h (1 Bft) 98 %
18.06.2019 16:04 27,1 C 62 % 1010,9 hPa 0,0 l/m 0 min 0 min 0,356 mm 3,0 UV-I 321 W/m 19,2 C 27,1 C 11,3 km/h (2 Bft) 98 %
18.06.2019 16:00 27,3 C 63 % 1011,0 hPa 0,0 l/m 0 min 0 min 0,000 mm 3,3 UV-I 355 W/m 19,6 C 27,3 C 6,4 km/h (2 Bft) 96 %
18.06.2019 15:58 27,4 C 65 % 1011,0 hPa 0,0 l/m 0 min 0 min 0,000 mm 3,4 UV-I 364 W/m 20,2 C 27,4 C 12,9 km/h (3 Bft) 98 %
18.06.2019 15:56 27,4 C 65 % 1011,0 hPa 0,0 l/m 0 min 0 min 0,000 mm 3,6 UV-I 382 W/m 20,2 C 27,4 C 6,4 km/h (2 Bft) 98 %
18.06.2019 15:54 27,3 C 66 % 1011,0 hPa 0,0 l/m 0 min 0 min 0,000 mm 4,0 UV-I 456 W/m 20,4 C 27,3 C 6,4 km/h (2 Bft) 96 %
18.06.2019 15:52 27,2 C 65 % 1011,0 hPa 0,0 l/m 2 min 0 min 0,000 mm 4,2 UV-I 511 W/m 20,0 C 27,2 C 6,4 km/h (2 Bft) 96 %
18.06.2019 15:50 27,2 C 65 % 1011,0 hPa 0,0 l/m 2 min 0 min 0,000 mm 4,2 UV-I 520 W/m 20,0 C 27,2 C 4,8 km/h (1 Bft) 96 %
18.06.2019 15:48 27,2 C 63 % 1011,0 hPa 0,0 l/m 0 min 0 min 0,000 mm 3,9 UV-I 478 W/m 19,5 C 27,2 C 4,8 km/h (1 Bft) 96 %
18.06.2019 15:46 27,2 C 66 % 1011,0 hPa 0,0 l/m 0 min 0 min 0,000 mm 3,7 UV-I 436 W/m 20,3 C 27,2 C 4,8 km/h (1 Bft) 94 %
18.06.2019 15:44 27,3 C 65 % 1011,0 hPa 0,0 l/m 0 min 0 min 0,000 mm 3,3 UV-I 401 W/m 20,1 C 27,3 C 6,4 km/h (2 Bft) 94 %
18.06.2019 15:42 27,4 C 64 % 1011,1 hPa 0,0 l/m 0 min 0 min 0,000 mm 3,0 UV-I 326 W/m 20,0 C 27,4 C 11,3 km/h (2 Bft) 96 %
18.06.2019 15:40 27,6 C 66 % 1011,1 hPa 0,0 l/m 0 min 0 min 0,000 mm 3,1 UV-I 339 W/m 20,7 C 27,6 C 8,0 km/h (2 Bft) 89 %
18.06.2019 15:38 27,7 C 64 % 1011,0 hPa 0,0 l/m 0 min 0 min 0,000 mm 3,2 UV-I 322 W/m 20,3 C 27,7 C 6,4 km/h (2 Bft) 91 %
18.06.2019 15:36 27,7 C 64 % 1011,0 hPa 0,0 l/m 0 min 0 min 0,000 mm 3,4 UV-I 327 W/m 20,3 C 27,7 C 8,0 km/h (2 Bft) 91 %
18.06.2019 15:34 27,8 C 63 % 1011,0 hPa 0,0 l/m 0 min 0 min 0,000 mm 3,8 UV-I 457 W/m 20,1 C 27,8 C 6,4 km/h (2 Bft) 91 %
18.06.2019 15:32 27,8 C 66 % 1011,0 hPa 0,0 l/m 0 min 0 min 0,000 mm 4,6 UV-I 468 W/m 20,8 C 27,8 C 9,7 km/h (2 Bft) 95 %
18.06.2019 15:30 27,7 C 65 % 1011,0 hPa 0,0 l/m 0 min 0 min 0,000 mm 5,0 UV-I 447 W/m 20,5 C 27,7 C 8,0 km/h (2 Bft) 91 %
18.06.2019 15:28 27,7 C 66 % 1011,1 hPa 0,0 l/m 2 min 0 min 0,000 mm 5,2 UV-I 781 W/m 20,8 C 27,7 C 3,2 km/h (1 Bft) 89 %
18.06.2019 15:26 27,6 C 63 % 1011,1 hPa 0,0 l/m 0 min 0 min 0,000 mm 4,5 UV-I 454 W/m 19,9 C 27,6 C 3,2 km/h (1 Bft) 91 %
18.06.2019 15:24 27,7 C 63 % 1011,1 hPa 0,0 l/m 0 min 0 min 0,000 mm 4,5 UV-I 482 W/m 20,0 C 27,7 C 8,0 km/h (2 Bft) 92 %
18.06.2019 15:22 27,7 C 65 % 1011,2 hPa 0,0 l/m 0 min 0 min 0,000 mm 4,3 UV-I 453 W/m 20,5 C 27,7 C 6,4 km/h (2 Bft) 92 %
18.06.2019 15:20 27,7 C 64 % 1011,2 hPa 0,0 l/m 2 min 0 min 0,000 mm 5,5 UV-I 587 W/m 20,3 C 27,7 C 9,7 km/h (2 Bft) 93 %
18.06.2019 15:18 27,6 C 63 % 1011,1 hPa 0,0 l/m 2 min 0 min 0,000 mm 5,5 UV-I 587 W/m 19,9 C 27,6 C 6,4 km/h (2 Bft) 91 %
18.06.2019 15:16 27,6 C 63 % 1011,2 hPa 0,0 l/m 2 min 0 min 0,000 mm 5,3 UV-I 599 W/m 19,9 C 27,6 C 9,7 km/h (2 Bft) 93 %
18.06.2019 15:14 27,7 C 64 % 1011,3 hPa 0,0 l/m 0 min 0 min 0,000 mm 4,8 UV-I 496 W/m 20,3 C 27,7 C 8,0 km/h (2 Bft) 94 %
18.06.2019 15:12 27,7 C 65 % 1011,3 hPa 0,0 l/m 0 min 0 min 0,000 mm 4,7 UV-I 457 W/m 20,5 C 27,7 C 9,7 km/h (2 Bft) 87 %
18.06.2019 15:10 27,7 C 62 % 1011,3 hPa 0,0 l/m 2 min 0 min 0,000 mm 5,0 UV-I 556 W/m 19,7 C 27,7 C 6,4 km/h (2 Bft) 98 %
18.06.2019 15:08 27,8 C 62 % 1011,3 hPa 0,0 l/m 2 min 0 min 0,000 mm 4,8 UV-I 543 W/m 19,8 C 27,8 C 6,4 km/h (2 Bft) 98 %
18.06.2019 15:06 28,0 C 61 % 1011,3 hPa 0,0 l/m 0 min 0 min 0,000 mm 4,7 UV-I 477 W/m 19,8 C 27,9 C 11,3 km/h (2 Bft) 96 %
18.06.2019 15:04 28,2 C 64 % 1011,3 hPa 0,0 l/m 2 min 0 min 0,381 mm 5,0 UV-I 567 W/m 20,7 C 28,2 C 11,3 km/h (2 Bft) 98 %
18.06.2019 15:00 28,2 C 64 % 1011,3 hPa 0,0 l/m 0 min 0 min 0,000 mm 5,5 UV-I 509 W/m 20,7 C 27,6 C 17,7 km/h (3 Bft) 98 %
18.06.2019 14:58 28,1 C 65 % 1011,4 hPa 0,0 l/m 2 min 0 min 0,000 mm 6,2 UV-I 874 W/m 20,9 C 28,1 C 9,7 km/h (2 Bft) 94 %
18.06.2019 14:56 27,7 C 66 % 1011,4 hPa 0,0 l/m 2 min 0 min 0,000 mm 6,5 UV-I 817 W/m 20,8 C 27,1 C 14,5 km/h (3 Bft) 98 %
18.06.2019 14:54 27,4 C 68 % 1011,4 hPa 0,0 l/m 2 min 0 min 0,000 mm 6,2 UV-I 750 W/m 21,0 C 27,4 C 9,7 km/h (2 Bft) 94 %
18.06.2019 14:52 27,0 C 65 % 1011,4 hPa 0,0 l/m 2 min 0 min 0,000 mm 6,6 UV-I 810 W/m 19,8 C 27,0 C 3,2 km/h (1 Bft) 98 %
18.06.2019 14:50 26,8 C 64 % 1011,5 hPa 0,0 l/m 2 min 0 min 0,000 mm 6,5 UV-I 808 W/m 19,4 C 26,8 C 8,0 km/h (2 Bft) 98 %
18.06.2019 14:48 26,7 C 66 % 1011,5 hPa 0,0 l/m 2 min 0 min 0,000 mm 5,9 UV-I 618 W/m 19,8 C 26,7 C 8,0 km/h (2 Bft) 98 %
18.06.2019 14:46 26,6 C 65 % 1011,5 hPa 0,0 l/m 0 min 0 min 0,000 mm 4,7 UV-I 481 W/m 19,5 C 26,6 C 6,4 km/h (2 Bft) 98 %
18.06.2019 14:44 26,6 C 69 % 1011,5 hPa 0,0 l/m 0 min 0 min 0,000 mm 4,6 UV-I 524 W/m 20,4 C 26,6 C 4,8 km/h (1 Bft) 98 %
18.06.2019 14:42 26,6 C 69 % 1011,6 hPa 0,0 l/m 0 min 0 min 0,000 mm 3,7 UV-I 382 W/m 20,4 C 26,6 C 6,4 km/h (2 Bft) 98 %
18.06.2019 14:40 26,5 C 67 % 1011,5 hPa 0,0 l/m 0 min 0 min 0,000 mm 2,8 UV-I 283 W/m 19,9 C 26,5 C 3,2 km/h (1 Bft) 98 %
18.06.2019 14:38 26,6 C 66 % 1011,6 hPa 0,0 l/m 0 min 0 min 0,000 mm 2,4 UV-I 237 W/m 19,7 C 26,6 C 4,8 km/h (1 Bft) 96 %
18.06.2019 14:36 26,8 C 65 % 1011,6 hPa 0,0 l/m 0 min 0 min 0,000 mm 2,4 UV-I 229 W/m 19,7 C 26,8 C 9,7 km/h (2 Bft) 98 %
18.06.2019 14:34 26,9 C 64 % 1011,6 hPa 0,0 l/m 0 min 0 min 0,000 mm 2,5 UV-I 238 W/m 19,5 C 26,9 C 9,7 km/h (2 Bft) 98 %
18.06.2019 14:32 27,1 C 63 % 1011,6 hPa 0,0 l/m 0 min 0 min 0,000 mm 2,9 UV-I 259 W/m 19,4 C 26,7 C 12,9 km/h (3 Bft) 96 %
18.06.2019 14:30 27,2 C 64 % 1011,6 hPa 0,0 l/m 0 min 0 min 0,000 mm 3,2 UV-I 287 W/m 19,8 C 27,2 C 6,4 km/h (2 Bft) 100 %
18.06.2019 14:28 27,4 C 63 % 1011,5 hPa 0,0 l/m 0 min 0 min 0,000 mm 3,5 UV-I 330 W/m 19,7 C 27,4 C 8,0 km/h (2 Bft) 100 %
18.06.2019 14:26 27,6 C 62 % 1011,6 hPa 0,0 l/m 0 min 0 min 0,000 mm 4,0 UV-I 373 W/m 19,6 C 27,6 C 12,9 km/h (3 Bft) 98 %
18.06.2019 14:24 27,7 C 61 % 1011,6 hPa 0,0 l/m 2 min 0 min 0,000 mm 4,1 UV-I 610 W/m 19,5 C 27,7 C 3,2 km/h (1 Bft) 98 %
18.06.2019 14:22 27,7 C 60 % 1011,6 hPa 0,0 l/m 2 min 0 min 0,000 mm 5,3 UV-I 589 W/m 19,2 C 27,7 C 8,0 km/h (2 Bft) 98 %
18.06.2019 14:20 27,6 C 63 % 1011,6 hPa 0,0 l/m 2 min 0 min 0,000 mm 5,8 UV-I 700 W/m 19,9 C 27,6 C 14,5 km/h (3 Bft) 98 %
18.06.2019 14:18 27,5 C 61 % 1011,6 hPa 0,0 l/m 0 min 0 min 0,000 mm 5,4 UV-I 444 W/m 19,3 C 27,5 C 9,7 km/h (2 Bft) 98 %
18.06.2019 14:16 27,6 C 62 % 1011,7 hPa 0,0 l/m 0 min 0 min 0,000 mm 5,6 UV-I 489 W/m 19,6 C 27,5 C 12,9 km/h (3 Bft) 98 %
18.06.2019 14:14 27,6 C 64 % 1011,7 hPa 0,0 l/m 0 min 0 min 0,000 mm 5,9 UV-I 489 W/m 20,2 C 27,3 C 14,5 km/h (3 Bft) 94 %
18.06.2019 14:12 27,6 C 64 % 1011,8 hPa 0,0 l/m 0 min 0 min 0,000 mm 5,9 UV-I 489 W/m 20,2 C 27,4 C 11,3 km/h (2 Bft) 98 %
18.06.2019 14:10 27,5 C 64 % 1011,8 hPa 0,0 l/m 0 min 0 min 0,000 mm 4,8 UV-I 438 W/m 20,1 C 27,2 C 14,5 km/h (3 Bft) 94 %
18.06.2019 14:08 27,6 C 64 % 1011,7 hPa 0,0 l/m 0 min 0 min 0,000 mm 5,1 UV-I 502 W/m 20,2 C 27,0 C 14,5 km/h (3 Bft) 96 %
18.06.2019 14:06 27,6 C 64 % 1011,8 hPa 0,0 l/m 2 min 0 min 0,000 mm 5,2 UV-I 557 W/m 20,2 C 27,5 C 17,7 km/h (3 Bft) 97 %
18.06.2019 14:04 27,6 C 63 % 1011,7 hPa 0,0 l/m 2 min 0 min 0,508 mm 6,2 UV-I 760 W/m 19,9 C 27,6 C 6,4 km/h (2 Bft) 97 %
18.06.2019 14:00 27,7 C 63 % 1011,8 hPa 0,0 l/m 2 min 0 min 0,000 mm 7,0 UV-I 834 W/m 20,0 C 27,7 C 12,9 km/h (3 Bft) 96 %
18.06.2019 13:58 27,7 C 61 % 1011,9 hPa 0,0 l/m 2 min 0 min 0,000 mm 7,2 UV-I 869 W/m 19,5 C 26,9 C 16,1 km/h (3 Bft) 98 %
18.06.2019 13:56 27,9 C 61 % 1011,9 hPa 0,0 l/m 2 min 0 min 0,000 mm 7,1 UV-I 831 W/m 19,7 C 27,4 C 16,1 km/h (3 Bft) 98 %
18.06.2019 13:54 28,1 C 61 % 1011,9 hPa 0,0 l/m 2 min 0 min 0,000 mm 7,1 UV-I 763 W/m 19,9 C 27,6 C 17,7 km/h (3 Bft) 98 %
18.06.2019 13:52 28,2 C 63 % 1011,9 hPa 0,0 l/m 2 min 0 min 0,000 mm 6,5 UV-I 609 W/m 20,5 C 27,9 C 12,9 km/h (3 Bft) 97 %
18.06.2019 13:50 27,9 C 64 % 1011,9 hPa 0,0 l/m 0 min 0 min 0,000 mm 6,2 UV-I 417 W/m 20,4 C 27,8 C 14,5 km/h (3 Bft) 98 %
18.06.2019 13:48 27,8 C 61 % 1011,9 hPa 0,0 l/m 0 min 0 min 0,000 mm 5,9 UV-I 414 W/m 19,6 C 27,5 C 14,5 km/h (3 Bft) 98 %
18.06.2019 13:46 27,7 C 60 % 1012,0 hPa 0,0 l/m 2 min 0 min 0,000 mm 5,8 UV-I 599 W/m 19,2 C 27,7 C 12,9 km/h (3 Bft) 96 %
18.06.2019 13:44 27,8 C 62 % 1012,1 hPa 0,0 l/m 2 min 0 min 0,000 mm 7,8 UV-I 953 W/m 19,8 C 27,8 C 4,8 km/h (1 Bft) 96 %
18.06.2019 13:42 27,8 C 61 % 1012,1 hPa 0,0 l/m 2 min 0 min 0,000 mm 8,2 UV-I 1020 W/m 19,6 C 27,8 C 11,3 km/h (2 Bft) 98 %
18.06.2019 13:40 27,6 C 63 % 1012,2 hPa 0,0 l/m 2 min 0 min 0,000 mm 8,3 UV-I 725 W/m 19,9 C 27,6 C 12,9 km/h (3 Bft) 96 %
18.06.2019 13:38 27,3 C 61 % 1012,2 hPa 0,0 l/m 2 min 0 min 0,000 mm 7,0 UV-I 732 W/m 19,1 C 27,1 C 12,9 km/h (3 Bft) 98 %
18.06.2019 13:36 27,0 C 63 % 1012,2 hPa 0,0 l/m 2 min 0 min 0,000 mm 7,2 UV-I 932 W/m 19,3 C 26,4 C 14,5 km/h (3 Bft) 97 %
18.06.2019 13:34 26,8 C 60 % 1012,2 hPa 0,0 l/m 2 min 0 min 0,000 mm 7,4 UV-I 906 W/m 18,4 C 26,8 C 8,0 km/h (2 Bft) 98 %
18.06.2019 13:32 26,9 C 64 % 1012,2 hPa 0,0 l/m 2 min 0 min 0,000 mm 6,9 UV-I 645 W/m 19,5 C 26,9 C 8,0 km/h (2 Bft) 94 %
18.06.2019 13:30 26,9 C 62 % 1012,2 hPa 0,0 l/m 2 min 0 min 0,000 mm 6,0 UV-I 585 W/m 19,0 C 26,9 C 6,4 km/h (2 Bft) 98 %
18.06.2019 13:28 27,1 C 62 % 1012,2 hPa 0,0 l/m 2 min 0 min 0,000 mm 6,6 UV-I 694 W/m 19,2 C 27,1 C 6,4 km/h (2 Bft) 98 %
18.06.2019 13:26 27,2 C 64 % 1012,2 hPa 0,0 l/m 2 min 0 min 0,000 mm 6,6 UV-I 668 W/m 19,8 C 27,2 C 9,7 km/h (2 Bft) 98 %
18.06.2019 13:24 27,1 C 64 % 1012,3 hPa 0,0 l/m 2 min 0 min 0,000 mm 6,4 UV-I 653 W/m 19,7 C 26,8 C 16,1 km/h (3 Bft) 97 %
18.06.2019 13:22 27,0 C 64 % 1012,3 hPa 0,0 l/m 2 min 0 min 0,000 mm 6,2 UV-I 647 W/m 19,6 C 26,8 C 12,9 km/h (3 Bft) 98 %
18.06.2019 13:20 26,8 C 64 % 1012,2 hPa 0,0 l/m 2 min 0 min 0,000 mm 6,2 UV-I 636 W/m 19,4 C 26,8 C 9,7 km/h (2 Bft) 98 %
18.06.2019 13:18 26,8 C 61 % 1012,2 hPa 0,0 l/m 2 min 0 min 0,000 mm 6,2 UV-I 631 W/m 18,6 C 26,8 C 9,7 km/h (2 Bft) 98 %
18.06.2019 13:16 26,9 C 63 % 1012,3 hPa 0,0 l/m 2 min 0 min 0,000 mm 6,5 UV-I 651 W/m 19,2 C 26,9 C 12,9 km/h (3 Bft) 100 %
18.06.2019 13:14 26,8 C 64 % 1012,3 hPa 0,0 l/m 2 min 0 min 0,000 mm 6,5 UV-I 668 W/m 19,4 C 26,8 C 12,9 km/h (3 Bft) 100 %
18.06.2019 13:12 26,8 C 64 % 1012,3 hPa 0,0 l/m 2 min 0 min 0,000 mm 6,6 UV-I 743 W/m 19,4 C 26,8 C 9,7 km/h (2 Bft) 98 %
18.06.2019 13:10 26,7 C 63 % 1012,3 hPa 0,0 l/m 2 min 0 min 0,000 mm 6,6 UV-I 681 W/m 19,1 C 26,7 C 11,3 km/h (2 Bft) 100 %
18.06.2019 13:08 26,7 C 62 % 1012,3 hPa 0,0 l/m 2 min 0 min 0,000 mm 6,8 UV-I 719 W/m 18,8 C 26,7 C 6,4 km/h (2 Bft) 100 %
18.06.2019 13:06 26,7 C 63 % 1012,3 hPa 0,0 l/m 2 min 0 min 0,000 mm 7,3 UV-I 791 W/m 19,1 C 26,4 C 16,1 km/h (3 Bft) 100 %
18.06.2019 13:04 26,6 C 62 % 1012,4 hPa 0,0 l/m 2 min 0 min 0,584 mm 7,4 UV-I 756 W/m 18,7 C 26,5 C 16,1 km/h (3 Bft) 98 %
18.06.2019 13:00 26,6 C 62 % 1012,4 hPa 0,0 l/m 2 min 0 min 0,000 mm 6,3 UV-I 600 W/m 18,7 C 26,5 C 12,9 km/h (3 Bft) 98 %
18.06.2019 12:58 26,7 C 62 % 1012,4 hPa 0,0 l/m 2 min 0 min 0,000 mm 6,9 UV-I 704 W/m 18,8 C 26,2 C 17,7 km/h (3 Bft) 98 %
18.06.2019 12:56 26,8 C 62 % 1012,4 hPa 0,0 l/m 2 min 0 min 0,000 mm 6,7 UV-I 698 W/m 18,9 C 26,8 C 4,8 km/h (1 Bft) 98 %
18.06.2019 12:54 26,8 C 62 % 1012,4 hPa 0,0 l/m 2 min 0 min 0,000 mm 7,3 UV-I 863 W/m 18,9 C 26,8 C 4,8 km/h (1 Bft) 97 %
18.06.2019 12:52 26,8 C 61 % 1012,4 hPa 0,0 l/m 2 min 0 min 0,000 mm 7,6 UV-I 756 W/m 18,6 C 26,4 C 12,9 km/h (3 Bft) 98 %
18.06.2019 12:50 26,9 C 58 % 1012,4 hPa 0,0 l/m 2 min 0 min 0,000 mm 7,2 UV-I 719 W/m 17,9 C 26,9 C 4,8 km/h (1 Bft) 94 %
18.06.2019 12:48 27,1 C 59 % 1012,4 hPa 0,0 l/m 2 min 0 min 0,000 mm 6,5 UV-I 697 W/m 18,4 C 27,0 C 12,9 km/h (3 Bft) 98 %
18.06.2019 12:46 27,1 C 62 % 1012,5 hPa 0,0 l/m 2 min 0 min 0,000 mm 7,5 UV-I 864 W/m 19,2 C 27,1 C 8,0 km/h (2 Bft) 98 %
18.06.2019 12:44 27,0 C 63 % 1012,5 hPa 0,0 l/m 2 min 0 min 0,000 mm 7,5 UV-I 911 W/m 19,3 C 27,0 C 11,3 km/h (2 Bft) 94 %
18.06.2019 12:42 26,8 C 60 % 1012,5 hPa 0,0 l/m 2 min 0 min 0,000 mm 8,1 UV-I 943 W/m 18,4 C 26,8 C 6,4 km/h (2 Bft) 98 %
18.06.2019 12:40 26,8 C 60 % 1012,5 hPa 0,0 l/m 2 min 0 min 0,000 mm 8,2 UV-I 942 W/m 18,4 C 26,8 C 4,8 km/h (1 Bft) 97 %
18.06.2019 12:38 26,8 C 62 % 1012,5 hPa 0,0 l/m 2 min 0 min 0,000 mm 8,1 UV-I 925 W/m 18,9 C 26,8 C 12,9 km/h (3 Bft) 98 %
18.06.2019 12:36 26,7 C 61 % 1012,5 hPa 0,0 l/m 2 min 0 min 0,000 mm 7,8 UV-I 881 W/m 18,5 C 26,7 C 9,7 km/h (2 Bft) 98 %
18.06.2019 12:34 26,6 C 62 % 1012,5 hPa 0,0 l/m 2 min 0 min 0,000 mm 7,8 UV-I 869 W/m 18,7 C 26,6 C 9,7 km/h (2 Bft) 100 %
18.06.2019 12:32 26,3 C 63 % 1012,5 hPa 0,0 l/m 2 min 0 min 0,000 mm 7,8 UV-I 900 W/m 18,7 C 26,3 C 11,3 km/h (2 Bft) 100 %
18.06.2019 12:30 26,2 C 60 % 1012,5 hPa 0,0 l/m 2 min 0 min 0,000 mm 7,7 UV-I 893 W/m 17,8 C 26,2 C 3,2 km/h (1 Bft) 100 %
18.06.2019 12:28 26,2 C 58 % 1012,6 hPa 0,0 l/m 2 min 0 min 0,000 mm 7,4 UV-I 835 W/m 17,3 C 26,2 C 8,0 km/h (2 Bft) 100 %
18.06.2019 12:26 26,3 C 58 % 1012,6 hPa 0,0 l/m 2 min 0 min 0,000 mm 7,2 UV-I 808 W/m 17,4 C 26,3 C 6,4 km/h (2 Bft) 96 %
18.06.2019 12:24 26,4 C 59 % 1012,7 hPa 0,0 l/m 2 min 0 min 0,000 mm 7,7 UV-I 912 W/m 17,7 C 26,4 C 11,3 km/h (2 Bft) 100 %
18.06.2019 12:20 26,4 C 61 % 1012,8 hPa 0,0 l/m 2 min 0 min 0,000 mm 7,7 UV-I 928 W/m 18,3 C 26,4 C 8,0 km/h (2 Bft) 100 %
18.06.2019 12:18 26,3 C 60 % 1012,8 hPa 0,0 l/m 2 min 0 min 0,000 mm 7,7 UV-I 939 W/m 17,9 C 26,1 C 11,3 km/h (2 Bft) 100 %
18.06.2019 12:16 26,3 C 61 % 1012,8 hPa 0,0 l/m 2 min 0 min 0,000 mm 7,5 UV-I 855 W/m 18,2 C 25,5 C 14,5 km/h (3 Bft) 96 %
18.06.2019 12:14 26,2 C 58 % 1012,8 hPa 0,0 l/m 2 min 0 min 0,000 mm 7,6 UV-I 902 W/m 17,3 C 26,2 C 9,7 km/h (2 Bft) 100 %
18.06.2019 12:12 26,3 C 59 % 1012,8 hPa 0,0 l/m 2 min 0 min 0,000 mm 7,7 UV-I 927 W/m 17,6 C 26,3 C 12,9 km/h (3 Bft) 96 %
18.06.2019 12:10 26,2 C 60 % 1012,7 hPa 0,0 l/m 2 min 0 min 0,000 mm 7,5 UV-I 818 W/m 17,8 C 26,2 C 8,0 km/h (2 Bft) 100 %
18.06.2019 12:08 26,2 C 60 % 1012,8 hPa 0,0 l/m 2 min 0 min 0,000 mm 7,1 UV-I 792 W/m 17,8 C 25,8 C 16,1 km/h (3 Bft) 100 %
18.06.2019 12:06 26,2 C 59 % 1012,8 hPa 0,0 l/m 2 min 0 min 0,000 mm 7,4 UV-I 891 W/m 17,5 C 26,2 C 11,3 km/h (2 Bft) 100 %
18.06.2019 12:04 26,2 C 62 % 1012,8 hPa 0,0 l/m 2 min 0 min 0,483 mm 7,4 UV-I 887 W/m 18,3 C 26,0 C 19,3 km/h (3 Bft) 99 %
18.06.2019 12:00 26,2 C 58 % 1012,9 hPa 0,0 l/m 2 min 0 min 0,000 mm 6,7 UV-I 769 W/m 17,3 C 26,2 C 9,7 km/h (2 Bft) 100 %
_ Min-Zeit 05:38 12:00 10:00 - - - - - - 05:38 05:38 16:06 15:12
Minimum _ 15,0 C 58 % 1004,9 hPa - - - - - - 13,7 C 13,0 C 1,6 km/h (1 Bft) 87 %
_ Max-Zeit 13:52 06:20 12:00 12:00 12:00 11:54 13:04 13:40 13:42 14:54 15:04 11:48 12:00
Maximum _ 28,2 C 94 % 1012,9 hPa 0,0 l/m 2 min 2 min 0,584 mm 8,3 UV-I 1020 W/m 21,0 C 28,2 C 35,4 km/h
SW (5 Bft)
100 %
Durchschnitt _ 23,3 C 73 % 1009,2 hPa #0,0 l/m #3:34 h #6 min. #1,397 mm 2,2 UV-I 300 W/m 17,8 C 22,8 C 11,6 km/h (2 Bft) 97 %